Time,TemperatureF,DewpointF,PressureIn,WindDirection,WindDirectionDegrees,WindSpeedMPH,WindSpeedGustMPH,Humidity,HourlyPrecipIn,Conditions,Clouds,dailyrainin,SoftwareType,DateUTC
2013-02-20 00:00:00,16.8,10.9,29.25,WNW,303,11.0,22.0,77,0.00,,,0.00,WUHU216DAVISVP2,2013-02-20 05:00:00,
2013-02-20 00:05:00,16.7,10.7,29.26,NNW,339,9.0,20.0,77,0.00,,,0.00,WUHU216DAVISVP2,2013-02-20 05:05:00,
2013-02-20 00:10:00,16.7,10.7,29.26,NW,306,10.0,20.0,77,0.00,,,0.00,WUHU216DAVISVP2,2013-02-20 05:10:00,
2013-02-20 00:11:00,16.8,10.8,29.26,NW,310,11.0,20.0,77,0.00,,,0.00,WUHU216DAVISVP2,2013-02-20 05:11:00,
2013-02-20 00:15:00,16.8,10.5,29.26,NW,313,11.0,21.0,76,0.00,,,0.00,WUHU216DAVISVP2,2013-02-20 05:15:00,
2013-02-20 00:16:00,16.8,10.6,29.26,NNW,328,10.0,21.0,76,0.00,,,0.00,WUHU216DAVISVP2,2013-02-20 05:16:00,
2013-02-20 00:20:00,16.8,10.6,29.26,WNW,289,10.0,21.0,76,0.00,,,0.00,WUHU216DAVISVP2,2013-02-20 05:20:00,
2013-02-20 00:21:00,16.8,10.6,29.26,NW,313,8.0,21.0,76,0.00,,,0.00,WUHU216DAVISVP2,2013-02-20 05:21:00,
2013-02-20 00:25:00,16.8,10.6,29.26,NW,310,8.0,21.0,76,0.00,,,0.00,WUHU216DAVISVP2,2013-02-20 05:25:00,
2013-02-20 00:26:00,16.8,10.6,29.26,NW,318,10.0,21.0,76,0.00,,,0.00,WUHU216DAVISVP2,2013-02-20 05:26:00,
2013-02-20 00:30:00,16.8,10.2,29.27,WNW,297,10.0,21.0,75,0.00,,,0.00,WUHU216DAVISVP2,2013-02-20 05:30:00,
2013-02-20 00:31:00,16.8,10.2,29.27,WNW,303,10.0,21.0,75,0.00,,,0.00,WUHU216DAVISVP2,2013-02-20 05:31:00,
2013-02-20 00:35:00,16.8,10.2,29.27,WNW,293,10.0,21.0,75,0.00,,,0.00,WUHU216DAVISVP2,2013-02-20 05:35:00,
2013-02-20 00:36:00,16.8,10.2,29.27,WNW,294,8.0,21.0,75,0.00,,,0.00,WUHU216DAVISVP2,2013-02-20 05:36:00,
2013-02-20 00:40:00,16.7,10.5,29.26,NW,306,12.0,21.0,76,0.00,,,0.00,WUHU216DAVISVP2,2013-02-20 05:40:00,
2013-02-20 00:41:00,16.7,10.5,29.26,NW,306,20.0,22.0,76,0.00,,,0.00,WUHU216DAVISVP2,2013-02-20 05:41:00,
2013-02-20 00:45:00,16.7,10.5,29.26,NW,308,11.0,22.0,76,0.00,,,0.00,WUHU216DAVISVP2,2013-02-20 05:45:00,
2013-02-20 00:46:00,16.7,10.5,29.26,NW,321,13.0,22.0,76,0.00,,,0.00,WUHU216DAVISVP2,2013-02-20 05:46:00,
2013-02-20 00:50:00,16.7,10.8,29.26,WNW,298,9.0,22.0,77,0.00,,,0.00,WUHU216DAVISVP2,2013-02-20 05:50:00,
2013-02-20 00:51:00,16.7,10.8,29.26,WNW,303,8.0,22.0,77,0.00,,,0.00,WUHU216DAVISVP2,2013-02-20 05:51:00,
2013-02-20 00:52:00,16.7,10.8,29.26,NW,308,11.0,22.0,77,0.00,,,0.00,WUHU216DAVISVP2,2013-02-20 05:52:00,
2013-02-20 00:56:00,16.7,10.7,29.27,NNW,332,9.0,22.0,77,0.00,,,0.00,WUHU216DAVISVP2,2013-02-20 05:56:00,
2013-02-20 00:57:00,16.7,10.7,29.27,NW,316,11.0,22.0,77,0.00,,,0.00,WUHU216DAVISVP2,2013-02-20 05:57:00,
2013-02-20 01:01:00,16.6,10.3,29.27,NW,322,10.0,20.0,76,0.00,,,0.00,WUHU216DAVISVP2,2013-02-20 06:01:00,
2013-02-20 01:02:00,16.6,10.3,29.27,NW,310,10.0,19.0,76,0.00,,,0.00,WUHU216DAVISVP2,2013-02-20 06:02:00,
2013-02-20 01:06:00,16.5,10.0,29.27,NW,309,8.0,19.0,75,0.00,,,0.00,WUHU216DAVISVP2,2013-02-20 06:06:00,
2013-02-20 01:07:00,16.5,10.0,29.27,WNW,301,7.0,19.0,75,0.00,,,0.00,WUHU216DAVISVP2,2013-02-20 06:07:00,
2013-02-20 01:11:00,16.4,9.9,29.27,NW,312,8.0,19.0,75,0.00,,,0.00,WUHU216DAVISVP2,2013-02-20 06:11:00,
2013-02-20 01:12:00,16.4,9.9,29.27,NW,307,14.0,19.0,75,0.00,,,0.00,WUHU216DAVISVP2,2013-02-20 06:12:00,
2013-02-20 01:16:00,16.3,10.1,29.27,WNW,295,9.0,19.0,76,0.00,,,0.00,WUHU216DAVISVP2,2013-02-20 06:16:00,
2013-02-20 01:17:00,16.3,10.1,29.27,WNW,291,14.0,19.0,76,0.00,,,0.00,WUHU216DAVISVP2,2013-02-20 06:17:00,
2013-02-20 01:21:00,16.4,10.2,29.27,NW,326,9.0,19.0,76,0.00,,,0.00,WUHU216DAVISVP2,2013-02-20 06:21:00,
2013-02-20 01:22:00,16.4,10.2,29.27,WNW,301,8.0,19.0,76,0.00,,,0.00,WUHU216DAVISVP2,2013-02-20 06:22:00,
2013-02-20 01:26:00,16.4,10.5,29.27,NW,317,13.0,19.0,77,0.00,,,0.00,WUHU216DAVISVP2,2013-02-20 06:26:00,
2013-02-20 01:27:00,16.4,10.2,29.27,WNW,297,12.0,19.0,76,0.00,,,0.00,WUHU216DAVISVP2,2013-02-20 06:27:00,
2013-02-20 01:32:00,16.5,10.6,29.28,NW,324,10.0,19.0,77,0.00,,,0.00,WUHU216DAVISVP2,2013-02-20 06:32:00,
2013-02-20 01:33:00,16.5,10.3,29.28,WNW,293,6.0,19.0,76,0.00,,,0.00,WUHU216DAVISVP2,2013-02-20 06:33:00,
2013-02-20 01:37:00,16.4,10.5,29.28,WNW,295,12.0,19.0,77,0.00,,,0.00,WUHU216DAVISVP2,2013-02-20 06:37:00,
2013-02-20 01:38:00,16.4,10.8,29.28,NW,305,9.0,19.0,78,0.00,,,0.00,WUHU216DAVISVP2,2013-02-20 06:38:00,
2013-02-20 01:42:00,16.4,11.0,29.28,WNW,296,9.0,19.0,79,0.00,,,0.00,WUHU216DAVISVP2,2013-02-20 06:42:00,
2013-02-20 01:43:00,16.4,11.0,29.28,WNW,299,11.0,19.0,79,0.00,,,0.00,WUHU216DAVISVP2,2013-02-20 06:43:00,
2013-02-20 01:47:00,16.4,11.0,29.28,WNW,297,18.0,19.0,79,0.00,,,0.00,WUHU216DAVISVP2,2013-02-20 06:47:00,
2013-02-20 01:48:00,16.4,11.0,29.28,WNW,287,14.0,19.0,79,0.00,,,0.00,WUHU216DAVISVP2,2013-02-20 06:48:00,
2013-02-20 01:52:00,16.4,11.0,29.28,WNW,298,14.0,22.0,79,0.00,,,0.00,WUHU216DAVISVP2,2013-02-20 06:52:00,
2013-02-20 01:53:00,16.3,10.9,29.28,NW,326,11.0,22.0,79,0.00,,,0.00,WUHU216DAVISVP2,2013-02-20 06:53:00,
2013-02-20 01:57:00,16.4,11.0,29.28,WNW,286,11.0,22.0,79,0.00,,,0.00,WUHU216DAVISVP2,2013-02-20 06:57:00,
2013-02-20 01:58:00,16.4,11.0,29.29,WNW,298,11.0,22.0,79,0.00,,,0.00,WUHU216DAVISVP2,2013-02-20 06:58:00,
2013-02-20 02:02:00,16.3,10.9,29.29,WNW,293,13.0,22.0,79,0.00,,,0.00,WUHU216DAVISVP2,2013-02-20 07:02:00,
2013-02-20 02:03:00,16.3,10.9,29.29,NW,312,10.0,22.0,79,0.00,,,0.00,WUHU216DAVISVP2,2013-02-20 07:03:00,
2013-02-20 02:07:00,16.3,10.6,29.29,WNW,297,14.0,22.0,78,0.00,,,0.00,WUHU216DAVISVP2,2013-02-20 07:07:00,
2013-02-20 02:08:00,16.3,10.6,29.29,NW,305,14.0,22.0,78,0.00,,,0.00,WUHU216DAVISVP2,2013-02-20 07:08:00,
2013-02-20 02:09:00,16.3,10.4,29.29,WNW,295,7.0,22.0,77,0.00,,,0.00,WUHU216DAVISVP2,2013-02-20 07:09:00,
2013-02-20 02:12:00,16.3,10.4,29.29,WNW,296,15.0,20.0,77,0.00,,,0.00,WUHU216DAVISVP2,2013-02-20 07:12:00,
2013-02-20 02:13:00,16.3,10.4,29.29,WNW,297,10.0,20.0,77,0.00,,,0.00,WUHU216DAVISVP2,2013-02-20 07:13:00,
2013-02-20 02:14:00,16.3,10.4,29.29,WNW,297,14.0,20.0,77,0.00,,,0.00,WUHU216DAVISVP2,2013-02-20 07:14:00,
2013-02-20 02:18:00,16.4,10.5,29.29,WNW,286,9.0,18.0,77,0.00,,,0.00,WUHU216DAVISVP2,2013-02-20 07:18:00,
2013-02-20 02:19:00,16.4,10.5,29.29,WNW,295,10.0,18.0,77,0.00,,,0.00,WUHU216DAVISVP2,2013-02-20 07:19:00,
2013-02-20 02:23:00,16.3,10.4,29.29,WNW,296,22.0,22.0,77,0.00,,,0.00,WUHU216DAVISVP2,2013-02-20 07:23:00,
2013-02-20 02:24:00,16.3,10.1,29.29,West,280,18.0,23.0,76,0.00,,,0.00,WUHU216DAVISVP2,2013-02-20 07:24:00,
2013-02-20 02:28:00,16.2,9.7,29.29,NW,309,8.0,23.0,75,0.00,,,0.00,WUHU216DAVISVP2,2013-02-20 07:28:00,
2013-02-20 02:29:00,16.2,9.7,29.29,WNW,295,11.0,23.0,75,0.00,,,0.00,WUHU216DAVISVP2,2013-02-20 07:29:00,
2013-02-20 02:33:00,16.2,9.4,29.30,NW,315,11.0,23.0,74,0.00,,,0.00,WUHU216DAVISVP2,2013-02-20 07:33:00,
2013-02-20 02:34:00,16.2,9.4,29.30,WNW,299,12.0,23.0,74,0.00,,,0.00,WUHU216DAVISVP2,2013-02-20 07:34:00,
2013-02-20 02:35:00,16.2,9.4,29.30,WNW,295,12.0,23.0,74,0.00,,,0.00,WUHU216DAVISVP2,2013-02-20 07:35:00,
2013-02-20 02:39:00,16.2,9.4,29.30,WNW,287,9.0,23.0,74,0.00,,,0.00,WUHU216DAVISVP2,2013-02-20 07:39:00,
2013-02-20 02:40:00,16.2,9.4,29.30,WNW,291,8.0,23.0,74,0.00,,,0.00,WUHU216DAVISVP2,2013-02-20 07:40:00,
2013-02-20 02:44:00,16.2,9.7,29.30,WNW,297,9.0,21.0,75,0.00,,,0.00,WUHU216DAVISVP2,2013-02-20 07:44:00,
2013-02-20 02:45:00,16.2,9.7,29.30,NW,312,15.0,21.0,75,0.00,,,0.00,WUHU216DAVISVP2,2013-02-20 07:45:00,
2013-02-20 02:49:00,16.1,9.3,29.30,NW,305,14.0,21.0,74,0.00,,,0.00,WUHU216DAVISVP2,2013-02-20 07:49:00,
2013-02-20 02:50:00,16.1,9.3,29.30,NW,304,9.0,21.0,74,0.00,,,0.00,WUHU216DAVISVP2,2013-02-20 07:50:00,
2013-02-20 02:54:00,15.9,9.1,29.30,NW,312,14.0,21.0,74,0.00,,,0.00,WUHU216DAVISVP2,2013-02-20 07:54:00,
2013-02-20 02:55:00,15.9,9.1,29.31,WNW,291,11.0,21.0,74,0.00,,,0.00,WUHU216DAVISVP2,2013-02-20 07:55:00,
2013-02-20 02:56:00,15.9,9.1,29.31,WNW,292,8.0,21.0,74,0.00,,,0.00,WUHU216DAVISVP2,2013-02-20 07:56:00,
2013-02-20 02:59:00,15.8,9.0,29.31,WNW,300,13.0,21.0,74,0.00,,,0.00,WUHU216DAVISVP2,2013-02-20 07:59:00,
2013-02-20 03:00:00,15.8,9.0,29.31,WNW,295,13.0,21.0,74,0.00,,,0.00,WUHU216DAVISVP2,2013-02-20 08:00:00,
2013-02-20 03:01:00,15.8,8.7,29.31,WNW,300,12.0,21.0,73,0.00,,,0.00,WUHU216DAVISVP2,2013-02-20 08:01:00,
2013-02-20 03:05:00,15.8,8.7,29.31,WNW,297,11.0,21.0,73,0.00,,,0.00,WUHU216DAVISVP2,2013-02-20 08:05:00,
2013-02-20 03:06:00,15.8,8.7,29.30,WNW,294,12.0,20.0,73,0.00,,,0.00,WUHU216DAVISVP2,2013-02-20 08:06:00,
2013-02-20 03:10:00,15.8,8.7,29.31,WNW,296,12.0,19.0,73,0.00,,,0.00,WUHU216DAVISVP2,2013-02-20 08:10:00,
2013-02-20 03:11:00,15.8,9.0,29.31,WNW,283,10.0,19.0,74,0.00,,,0.00,WUHU216DAVISVP2,2013-02-20 08:11:00,
2013-02-20 03:15:00,15.8,9.0,29.31,NW,309,10.0,19.0,74,0.00,,,0.00,WUHU216DAVISVP2,2013-02-20 08:15:00,
2013-02-20 03:16:00,15.8,9.0,29.31,NNW,328,9.0,19.0,74,0.00,,,0.00,WUHU216DAVISVP2,2013-02-20 08:16:00,
2013-02-20 03:20:00,15.8,9.3,29.31,West,276,10.0,19.0,75,0.00,,,0.00,WUHU216DAVISVP2,2013-02-20 08:20:00,
2013-02-20 03:21:00,15.8,9.3,29.31,West,281,10.0,19.0,75,0.00,,,0.00,WUHU216DAVISVP2,2013-02-20 08:21:00,
2013-02-20 03:26:00,15.7,8.9,29.31,NW,310,11.0,20.0,74,0.00,,,0.00,WUHU216DAVISVP2,2013-02-20 08:26:00,
2013-02-20 03:27:00,15.6,8.8,29.31,WNW,303,13.0,20.0,74,0.00,,,0.00,WUHU216DAVISVP2,2013-02-20 08:27:00,
2013-02-20 03:31:00,15.6,8.8,29.31,NW,314,11.0,22.0,74,0.00,,,0.00,WUHU216DAVISVP2,2013-02-20 08:31:00,
2013-02-20 03:32:00,15.6,8.8,29.31,NW,310,14.0,22.0,74,0.00,,,0.00,WUHU216DAVISVP2,2013-02-20 08:32:00,
2013-02-20 03:36:00,15.6,9.1,29.31,NW,308,12.0,22.0,75,0.00,,,0.00,WUHU216DAVISVP2,2013-02-20 08:36:00,
2013-02-20 03:37:00,15.6,9.1,29.32,WNW,301,8.0,22.0,75,0.00,,,0.00,WUHU216DAVISVP2,2013-02-20 08:37:00,
2013-02-20 03:41:00,15.5,8.7,29.32,NW,310,16.0,22.0,74,0.00,,,0.00,WUHU216DAVISVP2,2013-02-20 08:41:00,
2013-02-20 03:42:00,15.5,8.7,29.32,NW,326,11.0,22.0,74,0.00,,,0.00,WUHU216DAVISVP2,2013-02-20 08:42:00,
2013-02-20 03:46:00,15.5,9.0,29.32,WNW,297,9.0,22.0,75,0.00,,,0.00,WUHU216DAVISVP2,2013-02-20 08:46:00,
2013-02-20 03:47:00,15.5,9.0,29.32,WNW,295,10.0,22.0,75,0.00,,,0.00,WUHU216DAVISVP2,2013-02-20 08:47:00,
2013-02-20 03:51:00,15.3,8.8,29.32,NW,312,14.0,20.0,75,0.00,,,0.00,WUHU216DAVISVP2,2013-02-20 08:51:00,
2013-02-20 03:52:00,15.4,8.9,29.32,NW,326,19.0,20.0,75,0.00,,,0.00,WUHU216DAVISVP2,2013-02-20 08:52:00,
2013-02-20 03:56:00,15.3,8.8,29.32,WNW,289,12.0,21.0,75,0.00,,,0.00,WUHU216DAVISVP2,2013-02-20 08:56:00,
2013-02-20 03:57:00,15.2,8.7,29.32,NW,305,10.0,21.0,75,0.00,,,0.00,WUHU216DAVISVP2,2013-02-20 08:57:00,
2013-02-20 04:01:00,15.1,8.6,29.32,NW,308,16.0,21.0,75,0.00,,,0.00,WUHU216DAVISVP2,2013-02-20 09:01:00,
2013-02-20 04:02:00,15.1,8.6,29.32,WNW,303,12.0,21.0,75,0.00,,,0.00,WUHU216DAVISVP2,2013-02-20 09:02:00,
2013-02-20 04:06:00,15.0,8.5,29.32,NW,307,9.0,21.0,75,0.00,,,0.00,WUHU216DAVISVP2,2013-02-20 09:06:00,
2013-02-20 04:07:00,15.0,8.5,29.32,WNW,287,15.0,21.0,75,0.00,,,0.00,WUHU216DAVISVP2,2013-02-20 09:07:00,
2013-02-20 04:08:00,15.0,8.5,29.32,WNW,297,11.0,21.0,75,0.00,,,0.00,WUHU216DAVISVP2,2013-02-20 09:08:00,
2013-02-20 04:11:00,15.0,8.5,29.32,NW,306,8.0,21.0,75,0.00,,,0.00,WUHU216DAVISVP2,2013-02-20 09:11:00,
2013-02-20 04:12:00,15.0,8.5,29.32,NW,306,11.0,21.0,75,0.00,,,0.00,WUHU216DAVISVP2,2013-02-20 09:12:00,
2013-02-20 04:13:00,15.0,8.5,29.32,WNW,291,10.0,21.0,75,0.00,,,0.00,WUHU216DAVISVP2,2013-02-20 09:13:00,
2013-02-20 04:16:00,14.8,8.3,29.32,NW,309,19.0,20.0,75,0.00,,,0.00,WUHU216DAVISVP2,2013-02-20 09:16:00,
2013-02-20 04:17:00,14.8,8.3,29.32,NW,305,13.0,20.0,75,0.00,,,0.00,WUHU216DAVISVP2,2013-02-20 09:17:00,
2013-02-20 04:18:00,14.8,8.3,29.32,WNW,299,10.0,20.0,75,0.00,,,0.00,WUHU216DAVISVP2,2013-02-20 09:18:00,
2013-02-20 04:21:00,14.8,8.3,29.33,WNW,303,13.0,20.0,75,0.00,,,0.00,WUHU216DAVISVP2,2013-02-20 09:21:00,
2013-02-20 04:23:00,14.8,8.3,29.33,WNW,295,11.0,20.0,75,0.00,,,0.00,WUHU216DAVISVP2,2013-02-20 09:23:00,
2013-02-20 04:26:00,14.7,8.2,29.33,WNW,303,10.0,21.0,75,0.00,,,0.00,WUHU216DAVISVP2,2013-02-20 09:26:00,
2013-02-20 04:28:00,14.6,8.1,29.33,NW,305,15.0,22.0,75,0.00,,,0.00,WUHU216DAVISVP2,2013-02-20 09:28:00,
2013-02-20 04:31:00,14.5,8.0,29.33,NW,315,12.0,22.0,75,0.00,,,0.00,WUHU216DAVISVP2,2013-02-20 09:31:00,
2013-02-20 04:33:00,14.5,8.0,29.33,NW,308,9.0,22.0,75,0.00,,,0.00,WUHU216DAVISVP2,2013-02-20 09:33:00,
2013-02-20 04:37:00,14.4,8.2,29.33,WNW,303,9.0,22.0,76,0.00,,,0.00,WUHU216DAVISVP2,2013-02-20 09:37:00,
2013-02-20 04:38:00,14.3,7.9,29.33,WNW,298,11.0,22.0,75,0.00,,,0.00,WUHU216DAVISVP2,2013-02-20 09:38:00,
2013-02-20 04:42:00,14.2,8.0,29.33,NW,309,8.0,22.0,76,0.00,,,0.00,WUHU216DAVISVP2,2013-02-20 09:42:00,
2013-02-20 04:43:00,14.2,8.0,29.33,NW,316,11.0,22.0,76,0.00,,,0.00,WUHU216DAVISVP2,2013-02-20 09:43:00,
2013-02-20 04:47:00,14.0,7.8,29.33,NW,312,10.0,19.0,76,0.00,,,0.00,WUHU216DAVISVP2,2013-02-20 09:47:00,
2013-02-20 04:48:00,13.9,7.8,29.33,WNW,295,13.0,18.0,76,0.00,,,0.00,WUHU216DAVISVP2,2013-02-20 09:48:00,
2013-02-20 04:52:00,13.8,7.7,29.34,WNW,298,8.0,18.0,76,0.00,,,0.00,WUHU216DAVISVP2,2013-02-20 09:52:00,
2013-02-20 04:53:00,13.7,7.6,29.34,NW,310,9.0,18.0,76,0.00,,,0.00,WUHU216DAVISVP2,2013-02-20 09:53:00,
2013-02-20 04:57:00,13.7,7.6,29.34,WNW,295,13.0,19.0,76,0.00,,,0.00,WUHU216DAVISVP2,2013-02-20 09:57:00,
2013-02-20 04:58:00,13.6,7.5,29.34,WNW,296,9.0,19.0,76,0.00,,,0.00,WUHU216DAVISVP2,2013-02-20 09:58:00,
2013-02-20 05:02:00,13.6,7.2,29.34,WNW,295,10.0,21.0,75,0.00,,,0.00,WUHU216DAVISVP2,2013-02-20 10:02:00,
2013-02-20 05:03:00,13.5,7.4,29.34,WNW,297,9.0,21.0,76,0.00,,,0.00,WUHU216DAVISVP2,2013-02-20 10:03:00,
2013-02-20 05:04:00,13.5,7.4,29.34,WNW,287,14.0,21.0,76,0.00,,,0.00,WUHU216DAVISVP2,2013-02-20 10:04:00,
2013-02-20 05:07:00,13.5,7.4,29.34,WNW,283,13.0,21.0,76,0.00,,,0.00,WUHU216DAVISVP2,2013-02-20 10:07:00,
2013-02-20 05:08:00,13.5,7.3,29.34,WNW,299,12.0,21.0,76,0.00,,,0.00,WUHU216DAVISVP2,2013-02-20 10:08:00,
2013-02-20 05:09:00,13.5,7.3,29.34,WNW,286,10.0,21.0,76,0.00,,,0.00,WUHU216DAVISVP2,2013-02-20 10:09:00,
2013-02-20 05:12:00,13.5,7.4,29.34,NW,313,11.0,21.0,76,0.00,,,0.00,WUHU216DAVISVP2,2013-02-20 10:12:00,
2013-02-20 05:13:00,13.5,7.4,29.34,WNW,303,6.0,21.0,76,0.00,,,0.00,WUHU216DAVISVP2,2013-02-20 10:13:00,
2013-02-20 05:14:00,13.5,7.4,29.34,WNW,295,13.0,21.0,76,0.00,,,0.00,WUHU216DAVISVP2,2013-02-20 10:14:00,
2013-02-20 05:18:00,13.4,7.3,29.34,WNW,291,10.0,21.0,76,0.00,,,0.00,WUHU216DAVISVP2,2013-02-20 10:18:00,
2013-02-20 05:19:00,13.3,7.2,29.34,West,278,9.0,19.0,76,0.00,,,0.00,WUHU216DAVISVP2,2013-02-20 10:19:00,
2013-02-20 05:23:00,13.3,7.5,29.35,WNW,293,8.0,19.0,77,0.00,,,0.00,WUHU216DAVISVP2,2013-02-20 10:23:00,
2013-02-20 05:24:00,13.3,7.5,29.35,WNW,287,14.0,19.0,77,0.00,,,0.00,WUHU216DAVISVP2,2013-02-20 10:24:00,
2013-02-20 05:28:00,13.2,7.4,29.35,West,275,8.0,19.0,77,0.00,,,0.00,WUHU216DAVISVP2,2013-02-20 10:28:00,
2013-02-20 05:29:00,13.2,7.4,29.35,West,269,9.0,19.0,77,0.00,,,0.00,WUHU216DAVISVP2,2013-02-20 10:29:00,
2013-02-20 05:33:00,13.1,7.5,29.35,NW,307,9.0,18.0,78,0.00,,,0.00,WUHU216DAVISVP2,2013-02-20 10:33:00,
2013-02-20 05:34:00,13.1,7.5,29.35,WNW,290,13.0,18.0,78,0.00,,,0.00,WUHU216DAVISVP2,2013-02-20 10:34:00,
2013-02-20 05:38:00,13.0,7.4,29.35,NW,308,14.0,19.0,78,0.00,,,0.00,WUHU216DAVISVP2,2013-02-20 10:38:00,
2013-02-20 05:39:00,13.0,7.4,29.35,NW,308,8.0,19.0,78,0.00,,,0.00,WUHU216DAVISVP2,2013-02-20 10:39:00,
2013-02-20 05:43:00,12.9,7.1,29.35,WNW,300,7.0,19.0,77,0.00,,,0.00,WUHU216DAVISVP2,2013-02-20 10:43:00,
2013-02-20 05:44:00,12.9,7.1,29.35,NW,322,7.0,19.0,77,0.00,,,0.00,WUHU216DAVISVP2,2013-02-20 10:44:00,
2013-02-20 05:48:00,13.0,7.2,29.35,West,279,10.0,19.0,77,0.00,,,0.00,WUHU216DAVISVP2,2013-02-20 10:48:00,
2013-02-20 05:49:00,13.0,7.2,29.35,WNW,296,7.0,19.0,77,0.00,,,0.00,WUHU216DAVISVP2,2013-02-20 10:49:00,
2013-02-20 05:50:00,13.0,7.2,29.35,WNW,285,9.0,19.0,77,0.00,,,0.00,WUHU216DAVISVP2,2013-02-20 10:50:00,
2013-02-20 05:53:00,13.0,7.1,29.36,WNW,297,10.0,19.0,77,0.00,,,0.00,WUHU216DAVISVP2,2013-02-20 10:53:00,
2013-02-20 05:54:00,13.0,7.1,29.36,WNW,292,10.0,19.0,77,0.00,,,0.00,WUHU216DAVISVP2,2013-02-20 10:54:00,
2013-02-20 05:55:00,13.0,7.1,29.36,West,272,13.0,19.0,77,0.00,,,0.00,WUHU216DAVISVP2,2013-02-20 10:55:00,
2013-02-20 05:58:00,13.0,7.2,29.36,NW,316,10.0,18.0,77,0.00,,,0.00,WUHU216DAVISVP2,2013-02-20 10:58:00,
2013-02-20 05:59:00,13.0,7.2,29.36,WNW,297,9.0,18.0,77,0.00,,,0.00,WUHU216DAVISVP2,2013-02-20 10:59:00,
2013-02-20 06:00:00,13.0,7.2,29.36,WNW,299,6.0,18.0,77,0.00,,,0.00,WUHU216DAVISVP2,2013-02-20 11:00:00,
2013-02-20 06:03:00,12.9,7.1,29.36,WNW,301,10.0,19.0,77,0.00,,,0.00,WUHU216DAVISVP2,2013-02-20 11:03:00,
2013-02-20 06:04:00,13.0,7.2,29.36,WNW,283,10.0,19.0,77,0.00,,,0.00,WUHU216DAVISVP2,2013-02-20 11:04:00,
2013-02-20 06:05:00,12.9,7.1,29.36,West,278,12.0,19.0,77,0.00,,,0.00,WUHU216DAVISVP2,2013-02-20 11:05:00,
2013-02-20 06:09:00,12.8,7.0,29.36,WNW,290,10.0,19.0,77,0.00,,,0.00,WUHU216DAVISVP2,2013-02-20 11:09:00,
2013-02-20 06:10:00,12.7,6.9,29.36,NW,310,13.0,19.0,77,0.00,,,0.00,WUHU216DAVISVP2,2013-02-20 11:10:00,
2013-02-20 06:14:00,12.7,7.1,29.36,WNW,295,11.0,19.0,78,0.00,,,0.00,WUHU216DAVISVP2,2013-02-20 11:14:00,
2013-02-20 06:15:00,12.6,7.1,29.36,WNW,297,14.0,19.0,78,0.00,,,0.00,WUHU216DAVISVP2,2013-02-20 11:15:00,
2013-02-20 06:19:00,12.5,6.9,29.36,West,269,12.0,19.0,78,0.00,,,0.00,WUHU216DAVISVP2,2013-02-20 11:19:00,
2013-02-20 06:20:00,12.5,6.7,29.36,WNW,299,10.0,19.0,77,0.00,,,0.00,WUHU216DAVISVP2,2013-02-20 11:20:00,
2013-02-20 06:24:00,12.4,6.6,29.36,West,268,13.0,19.0,77,0.00,,,0.00,WUHU216DAVISVP2,2013-02-20 11:24:00,
2013-02-20 06:25:00,12.4,6.6,29.36,NW,307,9.0,19.0,77,0.00,,,0.00,WUHU216DAVISVP2,2013-02-20 11:25:00,
2013-02-20 06:30:00,12.3,6.5,29.36,WNW,282,13.0,19.0,77,0.00,,,0.00,WUHU216DAVISVP2,2013-02-20 11:30:00,
2013-02-20 06:31:00,12.3,6.5,29.36,WNW,299,11.0,19.0,77,0.00,,,0.00,WUHU216DAVISVP2,2013-02-20 11:31:00,
2013-02-20 06:35:00,12.2,6.4,29.36,West,274,13.0,19.0,77,0.00,,,0.00,WUHU216DAVISVP2,2013-02-20 11:35:00,
2013-02-20 06:36:00,12.2,6.4,29.36,West,280,10.0,19.0,77,0.00,,,0.00,WUHU216DAVISVP2,2013-02-20 11:36:00,
2013-02-20 06:40:00,12.1,6.3,29.36,WNW,295,15.0,19.0,77,0.00,,,0.00,WUHU216DAVISVP2,2013-02-20 11:40:00,
2013-02-20 06:41:00,12.0,6.2,29.36,WNW,289,12.0,19.0,77,0.00,,,0.00,WUHU216DAVISVP2,2013-02-20 11:41:00,
2013-02-20 06:45:00,12.0,6.5,29.36,WNW,291,6.0,16.0,78,0.00,,,0.00,WUHU216DAVISVP2,2013-02-20 11:45:00,
2013-02-20 06:46:00,11.9,6.4,29.36,West,279,12.0,16.0,78,0.00,,,0.00,WUHU216DAVISVP2,2013-02-20 11:46:00,
2013-02-20 06:50:00,11.9,6.4,29.37,WNW,301,8.0,18.0,78,0.00,,,0.00,WUHU216DAVISVP2,2013-02-20 11:50:00,
2013-02-20 06:51:00,11.9,6.4,29.37,West,270,10.0,18.0,78,0.00,,,0.00,WUHU216DAVISVP2,2013-02-20 11:51:00,
2013-02-20 06:55:00,11.7,6.2,29.37,West,275,7.0,18.0,78,0.00,,,0.00,WUHU216DAVISVP2,2013-02-20 11:55:00,
2013-02-20 06:56:00,11.7,6.2,29.37,WNW,291,6.0,18.0,78,0.00,,,0.00,WUHU216DAVISVP2,2013-02-20 11:56:00,
2013-02-20 07:00:00,11.6,6.1,29.37,WNW,285,10.0,18.0,78,0.00,,,0.00,WUHU216DAVISVP2,2013-02-20 12:00:00,
2013-02-20 07:01:00,11.6,6.1,29.37,West,264,11.0,18.0,78,0.00,,,0.00,WUHU216DAVISVP2,2013-02-20 12:01:00,
2013-02-20 07:02:00,11.6,6.1,29.37,NW,305,11.0,18.0,78,0.00,,,0.00,WUHU216DAVISVP2,2013-02-20 12:02:00,
2013-02-20 07:05:00,11.5,6.3,29.37,West,261,7.0,18.0,79,0.00,,,0.00,WUHU216DAVISVP2,2013-02-20 12:05:00,
2013-02-20 07:06:00,11.5,6.3,29.37,West,259,7.0,18.0,79,0.00,,,0.00,WUHU216DAVISVP2,2013-02-20 12:06:00,
2013-02-20 07:07:00,11.5,6.2,29.37,WNW,284,9.0,18.0,79,0.00,,,0.00,WUHU216DAVISVP2,2013-02-20 12:07:00,
2013-02-20 07:10:00,11.4,6.2,29.37,WNW,295,13.0,18.0,79,0.00,,,0.00,WUHU216DAVISVP2,2013-02-20 12:10:00,
2013-02-20 07:11:00,11.4,6.2,29.37,West,279,13.0,18.0,79,0.00,,,0.00,WUHU216DAVISVP2,2013-02-20 12:11:00,
2013-02-20 07:12:00,11.4,6.2,29.37,WSW,254,11.0,18.0,79,0.00,,,0.00,WUHU216DAVISVP2,2013-02-20 12:12:00,
2013-02-20 07:16:00,11.3,6.1,29.37,WNW,291,8.0,18.0,79,0.00,,,0.00,WUHU216DAVISVP2,2013-02-20 12:16:00,
2013-02-20 07:17:00,11.3,6.1,29.37,WNW,297,7.0,18.0,79,0.00,,,0.00,WUHU216DAVISVP2,2013-02-20 12:17:00,
2013-02-20 07:21:00,11.2,6.0,29.37,WNW,285,9.0,18.0,79,0.00,,,0.00,WUHU216DAVISVP2,2013-02-20 12:21:00,
2013-02-20 07:22:00,11.2,6.0,29.37,WNW,296,10.0,18.0,79,0.00,,,0.00,WUHU216DAVISVP2,2013-02-20 12:22:00,
2013-02-20 07:26:00,11.1,5.9,29.37,West,272,11.0,19.0,79,0.00,,,0.00,WUHU216DAVISVP2,2013-02-20 12:26:00,
2013-02-20 07:27:00,11.1,5.9,29.37,WNW,289,10.0,19.0,79,0.00,,,0.00,WUHU216DAVISVP2,2013-02-20 12:27:00,
2013-02-20 07:31:00,11.2,6.0,29.38,WNW,292,10.0,19.0,79,0.00,,,0.00,WUHU216DAVISVP2,2013-02-20 12:31:00,
2013-02-20 07:32:00,11.2,6.0,29.38,West,275,9.0,19.0,79,0.00,,,0.00,WUHU216DAVISVP2,2013-02-20 12:32:00,
2013-02-20 07:36:00,11.1,5.9,29.38,West,273,15.0,19.0,79,0.00,,,0.00,WUHU216DAVISVP2,2013-02-20 12:36:00,
2013-02-20 07:37:00,11.2,6.0,29.37,WNW,287,6.0,19.0,79,0.00,,,0.00,WUHU216DAVISVP2,2013-02-20 12:37:00,
2013-02-20 07:38:00,11.2,6.0,29.37,West,280,10.0,19.0,79,0.00,,,0.00,WUHU216DAVISVP2,2013-02-20 12:38:00,
2013-02-20 07:41:00,11.1,5.9,29.38,West,281,7.0,19.0,79,0.00,,,0.00,WUHU216DAVISVP2,2013-02-20 12:41:00,
2013-02-20 07:42:00,11.2,6.0,29.38,West,279,8.0,19.0,79,0.00,,,0.00,WUHU216DAVISVP2,2013-02-20 12:42:00,
2013-02-20 07:43:00,11.2,6.0,29.38,West,266,8.0,19.0,79,0.00,,,0.00,WUHU216DAVISVP2,2013-02-20 12:43:00,
2013-02-20 07:46:00,11.2,6.0,29.38,WNW,300,6.0,18.0,79,0.00,,,0.00,WUHU216DAVISVP2,2013-02-20 12:46:00,
2013-02-20 07:47:00,11.2,6.0,29.38,WNW,299,6.0,18.0,79,0.00,,,0.00,WUHU216DAVISVP2,2013-02-20 12:47:00,
2013-02-20 07:48:00,11.2,6.0,29.38,NW,310,6.0,18.0,79,0.00,,,0.00,WUHU216DAVISVP2,2013-02-20 12:48:00,
2013-02-20 07:52:00,11.2,6.0,29.38,WNW,285,8.0,18.0,79,0.00,,,0.00,WUHU216DAVISVP2,2013-02-20 12:52:00,
2013-02-20 07:53:00,11.2,6.0,29.38,WNW,287,8.0,18.0,79,0.00,,,0.00,WUHU216DAVISVP2,2013-02-20 12:53:00,
2013-02-20 07:57:00,11.2,6.0,29.38,West,274,13.0,16.0,79,0.00,,,0.00,WUHU216DAVISVP2,2013-02-20 12:57:00,
2013-02-20 07:58:00,11.2,6.0,29.38,WNW,285,8.0,16.0,79,0.00,,,0.00,WUHU216DAVISVP2,2013-02-20 12:58:00,
2013-02-20 08:02:00,11.2,6.0,29.38,WNW,298,7.0,16.0,79,0.00,,,0.00,WUHU216DAVISVP2,2013-02-20 13:02:00,
2013-02-20 08:03:00,11.2,6.0,29.38,WNW,295,9.0,16.0,79,0.00,,,0.00,WUHU216DAVISVP2,2013-02-20 13:03:00,
2013-02-20 08:07:00,11.3,6.1,29.39,NW,309,8.0,16.0,79,0.00,,,0.00,WUHU216DAVISVP2,2013-02-20 13:07:00,
2013-02-20 08:08:00,11.3,6.1,29.38,WNW,285,8.0,16.0,79,0.00,,,0.00,WUHU216DAVISVP2,2013-02-20 13:08:00,
2013-02-20 08:12:00,11.4,6.2,29.38,WNW,283,6.0,16.0,79,0.00,,,0.00,WUHU216DAVISVP2,2013-02-20 13:12:00,
2013-02-20 08:13:00,11.4,6.2,29.38,WNW,292,8.0,16.0,79,0.00,,,0.00,WUHU216DAVISVP2,2013-02-20 13:13:00,
2013-02-20 08:17:00,11.4,6.2,29.39,West,272,9.0,14.0,79,0.00,,,0.00,WUHU216DAVISVP2,2013-02-20 13:17:00,
2013-02-20 08:18:00,11.4,6.2,29.39,WNW,293,7.0,14.0,79,0.00,,,0.00,WUHU216DAVISVP2,2013-02-20 13:18:00,
2013-02-20 08:22:00,11.4,6.2,29.39,WNW,287,12.0,15.0,79,0.00,,,0.00,WUHU216DAVISVP2,2013-02-20 13:22:00,
2013-02-20 08:23:00,11.4,6.2,29.39,West,280,9.0,16.0,79,0.00,,,0.00,WUHU216DAVISVP2,2013-02-20 13:23:00,
2013-02-20 08:24:00,11.3,6.1,29.39,West,281,11.0,16.0,79,0.00,,,0.00,WUHU216DAVISVP2,2013-02-20 13:24:00,
2013-02-20 08:27:00,11.4,6.2,29.39,WNW,293,12.0,19.0,79,0.00,,,0.00,WUHU216DAVISVP2,2013-02-20 13:27:00,
2013-02-20 08:28:00,11.4,6.2,29.39,West,273,10.0,19.0,79,0.00,,,0.00,WUHU216DAVISVP2,2013-02-20 13:28:00,
2013-02-20 08:29:00,11.3,6.1,29.39,West,279,7.0,19.0,79,0.00,,,0.00,WUHU216DAVISVP2,2013-02-20 13:29:00,
2013-02-20 08:32:00,11.4,6.2,29.40,WNW,287,10.0,19.0,79,0.00,,,0.00,WUHU216DAVISVP2,2013-02-20 13:32:00,
2013-02-20 08:33:00,11.4,6.2,29.40,WNW,288,11.0,19.0,79,0.00,,,0.00,WUHU216DAVISVP2,2013-02-20 13:33:00,
2013-02-20 08:34:00,11.4,6.2,29.40,WNW,295,8.0,19.0,79,0.00,,,0.00,WUHU216DAVISVP2,2013-02-20 13:34:00,
2013-02-20 08:37:00,11.4,6.2,29.40,West,280,10.0,19.0,79,0.00,,,0.00,WUHU216DAVISVP2,2013-02-20 13:37:00,
2013-02-20 08:39:00,11.5,6.3,29.40,WNW,293,11.0,19.0,79,0.00,,,0.00,WUHU216DAVISVP2,2013-02-20 13:39:00,
2013-02-20 08:42:00,11.6,6.4,29.40,NW,308,11.0,19.0,79,0.00,,,0.00,WUHU216DAVISVP2,2013-02-20 13:42:00,
2013-02-20 08:43:00,11.6,6.4,29.40,WNW,288,11.0,19.0,79,0.00,,,0.00,WUHU216DAVISVP2,2013-02-20 13:43:00,
2013-02-20 08:44:00,11.6,6.4,29.40,WNW,285,8.0,14.0,79,0.00,,,0.00,WUHU216DAVISVP2,2013-02-20 13:44:00,
2013-02-20 08:48:00,11.8,6.5,29.40,West,280,10.0,14.0,79,0.00,,,0.00,WUHU216DAVISVP2,2013-02-20 13:48:00,
2013-02-20 08:49:00,11.8,6.5,29.40,WNW,295,11.0,14.0,79,0.00,,,0.00,WUHU216DAVISVP2,2013-02-20 13:49:00,
2013-02-20 08:53:00,11.9,6.6,29.40,WNW,293,14.0,14.0,79,0.00,,,0.00,WUHU216DAVISVP2,2013-02-20 13:53:00,
2013-02-20 08:54:00,12.0,6.7,29.40,WNW,296,9.0,16.0,79,0.00,,,0.00,WUHU216DAVISVP2,2013-02-20 13:54:00,
2013-02-20 08:55:00,12.1,6.8,29.40,West,263,6.0,16.0,79,0.00,,,0.00,WUHU216DAVISVP2,2013-02-20 13:55:00,
2013-02-20 08:58:00,12.3,7.0,29.40,WNW,293,9.0,16.0,79,0.00,,,0.00,WUHU216DAVISVP2,2013-02-20 13:58:00,
2013-02-20 08:59:00,12.3,7.0,29.40,WNW,285,15.0,16.0,79,0.00,,,0.00,WUHU216DAVISVP2,2013-02-20 13:59:00,
2013-02-20 09:00:00,12.3,7.0,29.40,WNW,299,9.0,18.0,79,0.00,,,0.00,WUHU216DAVISVP2,2013-02-20 14:00:00,
2013-02-20 09:03:00,12.4,7.1,29.41,WNW,295,13.0,18.0,79,0.00,,,0.00,WUHU216DAVISVP2,2013-02-20 14:03:00,
2013-02-20 09:04:00,12.4,6.9,29.41,West,280,13.0,18.0,78,0.00,,,0.00,WUHU216DAVISVP2,2013-02-20 14:04:00,
2013-02-20 09:05:00,12.4,6.9,29.40,West,268,9.0,18.0,78,0.00,,,0.00,WUHU216DAVISVP2,2013-02-20 14:05:00,
2013-02-20 09:08:00,12.5,7.2,29.40,WNW,297,11.0,18.0,79,0.00,,,0.00,WUHU216DAVISVP2,2013-02-20 14:08:00,
2013-02-20 09:09:00,12.6,7.3,29.40,WNW,298,7.0,18.0,79,0.00,,,0.00,WUHU216DAVISVP2,2013-02-20 14:09:00,
2013-02-20 09:10:00,12.7,7.1,29.40,WNW,301,7.0,18.0,78,0.00,,,0.00,WUHU216DAVISVP2,2013-02-20 14:10:00,
2013-02-20 09:13:00,12.8,7.2,29.40,WNW,287,10.0,18.0,78,0.00,,,0.00,WUHU216DAVISVP2,2013-02-20 14:13:00,
2013-02-20 09:14:00,12.9,7.3,29.40,WNW,293,12.0,18.0,78,0.00,,,0.00,WUHU216DAVISVP2,2013-02-20 14:14:00,
2013-02-20 09:15:00,12.9,7.3,29.40,NW,309,14.0,18.0,78,0.00,,,0.00,WUHU216DAVISVP2,2013-02-20 14:15:00,
2013-02-20 09:18:00,13.0,7.4,29.40,WNW,287,8.0,18.0,78,0.00,,,0.00,WUHU216DAVISVP2,2013-02-20 14:18:00,
2013-02-20 09:19:00,13.0,7.4,29.40,WNW,301,10.0,18.0,78,0.00,,,0.00,WUHU216DAVISVP2,2013-02-20 14:19:00,
2013-02-20 09:20:00,13.1,7.5,29.40,NW,307,8.0,18.0,78,0.00,,,0.00,WUHU216DAVISVP2,2013-02-20 14:20:00,
2013-02-20 09:23:00,13.3,7.7,29.40,WNW,289,9.0,16.0,78,0.00,,,0.00,WUHU216DAVISVP2,2013-02-20 14:23:00,
2013-02-20 09:24:00,13.3,7.7,29.40,WNW,291,9.0,16.0,78,0.00,,,0.00,WUHU216DAVISVP2,2013-02-20 14:24:00,
2013-02-20 09:25:00,13.4,7.8,29.41,WNW,289,9.0,16.0,78,0.00,,,0.00,WUHU216DAVISVP2,2013-02-20 14:25:00,
2013-02-20 09:28:00,13.4,7.8,29.41,West,276,14.0,16.0,78,0.00,,,0.00,WUHU216DAVISVP2,2013-02-20 14:28:00,
2013-02-20 09:29:00,13.5,7.9,29.41,WNW,294,14.0,16.0,78,0.00,,,0.00,WUHU216DAVISVP2,2013-02-20 14:29:00,
2013-02-20 09:31:00,13.4,7.5,29.40,WNW,296,13.0,16.0,77,0.00,,,0.00,WUHU216DAVISVP2,2013-02-20 14:31:00,
2013-02-20 09:33:00,13.4,7.6,29.40,WNW,296,10.0,16.0,77,0.00,,,0.00,WUHU216DAVISVP2,2013-02-20 14:33:00,
2013-02-20 09:34:00,13.4,7.6,29.40,NW,307,12.0,16.0,77,0.00,,,0.00,WUHU216DAVISVP2,2013-02-20 14:34:00,
2013-02-20 09:36:00,13.5,7.6,29.40,West,274,5.0,16.0,77,0.00,,,0.00,WUHU216DAVISVP2,2013-02-20 14:36:00,
2013-02-20 09:39:00,13.8,8.2,29.40,WNW,295,7.0,16.0,78,0.00,,,0.00,WUHU216DAVISVP2,2013-02-20 14:39:00,
2013-02-20 09:40:00,13.9,8.3,29.40,WNW,297,8.0,16.0,78,0.00,,,0.00,WUHU216DAVISVP2,2013-02-20 14:40:00,
2013-02-20 09:41:00,14.1,8.5,29.40,NW,305,9.0,16.0,78,0.00,,,0.00,WUHU216DAVISVP2,2013-02-20 14:41:00,
2013-02-20 09:44:00,14.2,8.6,29.40,WNW,299,9.0,16.0,78,0.00,,,0.00,WUHU216DAVISVP2,2013-02-20 14:44:00,
2013-02-20 09:45:00,14.1,8.2,29.40,WNW,287,8.0,16.0,77,0.00,,,0.00,WUHU216DAVISVP2,2013-02-20 14:45:00,
2013-02-20 09:46:00,14.1,8.2,29.40,WNW,292,11.0,16.0,77,0.00,,,0.00,WUHU216DAVISVP2,2013-02-20 14:46:00,
2013-02-20 09:49:00,14.1,8.2,29.41,West,279,13.0,16.0,77,0.00,,,0.00,WUHU216DAVISVP2,2013-02-20 14:49:00,
2013-02-20 09:51:00,14.1,8.2,29.41,WNW,301,12.0,19.0,77,0.00,,,0.00,WUHU216DAVISVP2,2013-02-20 14:51:00,
2013-02-20 09:54:00,14.2,8.3,29.41,WNW,283,10.0,19.0,77,0.00,,,0.00,WUHU216DAVISVP2,2013-02-20 14:54:00,
2013-02-20 09:56:00,14.3,8.4,29.41,NNW,332,10.0,19.0,77,0.00,,,0.00,WUHU216DAVISVP2,2013-02-20 14:56:00,
2013-02-20 09:57:00,14.3,8.4,29.41,NNW,332,10.0,19.0,77,0.00,,,0.00,WUHU216DAVISVP2,2013-02-20 14:57:00,
2013-02-20 09:59:00,14.4,8.5,29.41,WNW,291,8.0,19.0,77,0.00,,,0.00,WUHU216DAVISVP2,2013-02-20 14:59:00,
2013-02-20 10:01:00,14.6,8.7,29.41,WNW,289,13.0,19.0,77,0.00,,,0.00,WUHU216DAVISVP2,2013-02-20 15:01:00,
2013-02-20 10:02:00,14.6,8.7,29.41,WNW,296,8.0,19.0,77,0.00,,,0.00,WUHU216DAVISVP2,2013-02-20 15:02:00,
2013-02-20 10:04:00,14.6,8.7,29.41,WNW,296,11.0,19.0,77,0.00,,,0.00,WUHU216DAVISVP2,2013-02-20 15:04:00,
2013-02-20 10:07:00,14.7,8.5,29.41,West,276,11.0,19.0,76,0.00,,,0.00,WUHU216DAVISVP2,2013-02-20 15:07:00,
2013-02-20 10:09:00,14.9,9.0,29.41,WNW,287,10.0,19.0,77,0.00,,,0.00,WUHU216DAVISVP2,2013-02-20 15:09:00,
2013-02-20 10:12:00,14.9,8.7,29.41,WNW,296,12.0,19.0,76,0.00,,,0.00,WUHU216DAVISVP2,2013-02-20 15:12:00,
2013-02-20 10:14:00,15.0,8.8,29.41,West,272,13.0,19.0,76,0.00,,,0.00,WUHU216DAVISVP2,2013-02-20 15:14:00,
2013-02-20 10:15:00,15.0,8.8,29.41,WNW,301,11.0,19.0,76,0.00,,,0.00,WUHU216DAVISVP2,2013-02-20 15:15:00,
2013-02-20 10:17:00,15.1,8.9,29.42,WNW,297,21.0,21.0,76,0.00,,,0.00,WUHU216DAVISVP2,2013-02-20 15:17:00,
2013-02-20 10:19:00,15.1,8.9,29.42,WNW,296,13.0,21.0,76,0.00,,,0.00,WUHU216DAVISVP2,2013-02-20 15:19:00,
2013-02-20 10:20:00,15.1,8.9,29.42,WNW,303,15.0,21.0,76,0.00,,,0.00,WUHU216DAVISVP2,2013-02-20 15:20:00,
2013-02-20 10:22:00,15.2,9.0,29.41,WNW,291,9.0,21.0,76,0.00,,,0.00,WUHU216DAVISVP2,2013-02-20 15:22:00,
2013-02-20 10:23:00,15.2,9.0,29.41,NW,314,10.0,21.0,76,0.00,,,0.00,WUHU216DAVISVP2,2013-02-20 15:23:00,
2013-02-20 10:24:00,15.3,9.1,29.41,NW,308,13.0,21.0,76,0.00,,,0.00,WUHU216DAVISVP2,2013-02-20 15:24:00,
2013-02-20 10:25:00,15.4,9.2,29.41,WNW,290,9.0,21.0,76,0.00,,,0.00,WUHU216DAVISVP2,2013-02-20 15:25:00,
2013-02-20 10:28:00,15.5,9.3,29.41,West,270,10.0,21.0,76,0.00,,,0.00,WUHU216DAVISVP2,2013-02-20 15:28:00,
2013-02-20 10:29:00,15.6,9.4,29.42,WNW,295,10.0,21.0,76,0.00,,,0.00,WUHU216DAVISVP2,2013-02-20 15:29:00,
2013-02-20 10:30:00,15.5,9.3,29.42,WNW,299,13.0,21.0,76,0.00,,,0.00,WUHU216DAVISVP2,2013-02-20 15:30:00,
2013-02-20 10:33:00,15.7,9.5,29.42,WNW,287,12.0,21.0,76,0.00,,,0.00,WUHU216DAVISVP2,2013-02-20 15:33:00,
2013-02-20 10:34:00,15.7,9.5,29.42,WSW,257,14.0,21.0,76,0.00,,,0.00,WUHU216DAVISVP2,2013-02-20 15:34:00,
2013-02-20 10:35:00,15.7,9.5,29.42,West,278,11.0,21.0,76,0.00,,,0.00,WUHU216DAVISVP2,2013-02-20 15:35:00,
2013-02-20 10:38:00,16.0,9.8,29.42,WNW,282,9.0,16.0,76,0.00,,,0.00,WUHU216DAVISVP2,2013-02-20 15:38:00,
2013-02-20 10:39:00,16.1,9.9,29.42,NW,306,15.0,16.0,76,0.00,,,0.00,WUHU216DAVISVP2,2013-02-20 15:39:00,
2013-02-20 10:40:00,16.1,9.9,29.42,WNW,285,12.0,18.0,76,0.00,,,0.00,WUHU216DAVISVP2,2013-02-20 15:40:00,
2013-02-20 10:43:00,16.1,9.6,29.42,WNW,294,11.0,21.0,75,0.00,,,0.00,WUHU216DAVISVP2,2013-02-20 15:43:00,
2013-02-20 10:44:00,16.0,9.5,29.42,WNW,294,12.0,21.0,75,0.00,,,0.00,WUHU216DAVISVP2,2013-02-20 15:44:00,
2013-02-20 10:45:00,16.0,9.5,29.42,WNW,301,16.0,21.0,75,0.00,,,0.00,WUHU216DAVISVP2,2013-02-20 15:45:00,
2013-02-20 10:48:00,16.4,10.2,29.42,West,280,11.0,21.0,76,0.00,,,0.00,WUHU216DAVISVP2,2013-02-20 15:48:00,
2013-02-20 10:49:00,16.5,10.3,29.42,WNW,283,9.0,21.0,76,0.00,,,0.00,WUHU216DAVISVP2,2013-02-20 15:49:00,
2013-02-20 10:50:00,16.7,10.5,29.42,WNW,298,13.0,21.0,76,0.00,,,0.00,WUHU216DAVISVP2,2013-02-20 15:50:00,
2013-02-20 10:53:00,16.9,10.7,29.42,WNW,301,15.0,21.0,76,0.00,,,0.00,WUHU216DAVISVP2,2013-02-20 15:53:00,
2013-02-20 10:54:00,16.8,10.3,29.42,West,279,12.0,21.0,75,0.00,,,0.00,WUHU216DAVISVP2,2013-02-20 15:54:00,
2013-02-20 10:55:00,16.8,10.3,29.42,WNW,288,15.0,21.0,75,0.00,,,0.00,WUHU216DAVISVP2,2013-02-20 15:55:00,
2013-02-20 10:58:00,17.1,10.9,29.42,NW,308,10.0,21.0,76,0.00,,,0.00,WUHU216DAVISVP2,2013-02-20 15:58:00,
2013-02-20 10:59:00,17.1,10.6,29.42,West,277,12.0,21.0,75,0.00,,,0.00,WUHU216DAVISVP2,2013-02-20 15:59:00,
2013-02-20 11:00:00,17.1,10.6,29.42,West,277,10.0,21.0,75,0.00,,,0.00,WUHU216DAVISVP2,2013-02-20 16:00:00,
2013-02-20 11:04:00,17.3,10.8,29.42,WNW,290,9.0,19.0,75,0.00,,,0.00,WUHU216DAVISVP2,2013-02-20 16:04:00,
2013-02-20 11:05:00,17.4,10.9,29.42,WNW,288,12.0,19.0,75,0.00,,,0.00,WUHU216DAVISVP2,2013-02-20 16:05:00,
2013-02-20 11:06:00,17.4,10.9,29.42,WNW,303,9.0,19.0,75,0.00,,,0.00,WUHU216DAVISVP2,2013-02-20 16:06:00,
2013-02-20 11:09:00,17.5,10.7,29.42,West,276,14.0,21.0,74,0.00,,,0.00,WUHU216DAVISVP2,2013-02-20 16:09:00,
2013-02-20 11:10:00,17.4,10.6,29.42,NW,305,16.0,21.0,74,0.00,,,0.00,WUHU216DAVISVP2,2013-02-20 16:10:00,
2013-02-20 11:11:00,17.3,10.5,29.42,WNW,292,14.0,21.0,74,0.00,,,0.00,WUHU216DAVISVP2,2013-02-20 16:11:00,
2013-02-20 11:14:00,17.4,10.6,29.42,West,276,11.0,21.0,74,0.00,,,0.00,WUHU216DAVISVP2,2013-02-20 16:14:00,
2013-02-20 11:15:00,17.4,10.6,29.42,WNW,288,11.0,21.0,74,0.00,,,0.00,WUHU216DAVISVP2,2013-02-20 16:15:00,
2013-02-20 11:16:00,17.5,10.7,29.42,WNW,289,13.0,21.0,74,0.00,,,0.00,WUHU216DAVISVP2,2013-02-20 16:16:00,
2013-02-20 11:19:00,17.8,10.9,29.42,NW,306,8.0,21.0,74,0.00,,,0.00,WUHU216DAVISVP2,2013-02-20 16:19:00,
2013-02-20 11:20:00,17.9,11.3,29.42,WNW,294,9.0,21.0,75,0.00,,,0.00,WUHU216DAVISVP2,2013-02-20 16:20:00,
2013-02-20 11:21:00,18.1,11.5,29.42,West,277,11.0,21.0,75,0.00,,,0.00,WUHU216DAVISVP2,2013-02-20 16:21:00,
2013-02-20 11:24:00,18.1,11.2,29.42,WNW,298,8.0,21.0,74,0.00,,,0.00,WUHU216DAVISVP2,2013-02-20 16:24:00,
2013-02-20 11:25:00,18.2,11.3,29.42,West,280,11.0,21.0,74,0.00,,,0.00,WUHU216DAVISVP2,2013-02-20 16:25:00,
2013-02-20 11:27:00,18.2,11.0,29.42,NW,309,16.0,21.0,73,0.00,,,0.00,WUHU216DAVISVP2,2013-02-20 16:27:00,
2013-02-20 11:29:00,17.9,10.7,29.42,WNW,293,15.0,20.0,73,0.00,,,0.00,WUHU216DAVISVP2,2013-02-20 16:29:00,
2013-02-20 11:30:00,17.9,10.7,29.42,WNW,292,12.0,20.0,73,0.00,,,0.00,WUHU216DAVISVP2,2013-02-20 16:30:00,
2013-02-20 11:32:00,18.0,10.8,29.42,WNW,295,11.0,20.0,73,0.00,,,0.00,WUHU216DAVISVP2,2013-02-20 16:32:00,
2013-02-20 11:35:00,18.2,11.0,29.42,NW,318,11.0,20.0,73,0.00,,,0.00,WUHU216DAVISVP2,2013-02-20 16:35:00,
2013-02-20 11:37:00,18.5,11.3,29.42,WNW,301,8.0,20.0,73,0.00,,,0.00,WUHU216DAVISVP2,2013-02-20 16:37:00,
2013-02-20 11:40:00,18.8,11.9,29.42,West,278,16.0,20.0,74,0.00,,,0.00,WUHU216DAVISVP2,2013-02-20 16:40:00,
2013-02-20 11:41:00,18.9,12.0,29.43,WNW,297,20.0,21.0,74,0.00,,,0.00,WUHU216DAVISVP2,2013-02-20 16:41:00,
2013-02-20 11:42:00,18.7,11.5,29.43,NW,322,13.0,23.0,73,0.00,,,0.00,WUHU216DAVISVP2,2013-02-20 16:42:00,
2013-02-20 11:45:00,18.8,11.6,29.43,NW,316,8.0,23.0,73,0.00,,,0.00,WUHU216DAVISVP2,2013-02-20 16:45:00,
2013-02-20 11:46:00,18.8,11.9,29.43,NW,314,12.0,23.0,74,0.00,,,0.00,WUHU216DAVISVP2,2013-02-20 16:46:00,
2013-02-20 11:47:00,18.5,11.0,29.43,WNW,289,19.0,23.0,72,0.00,,,0.00,WUHU216DAVISVP2,2013-02-20 16:47:00,
2013-02-20 11:50:00,18.4,10.9,29.43,WNW,298,11.0,23.0,72,0.00,,,0.00,WUHU216DAVISVP2,2013-02-20 16:50:00,
2013-02-20 11:51:00,18.5,11.3,29.43,West,281,11.0,23.0,73,0.00,,,0.00,WUHU216DAVISVP2,2013-02-20 16:51:00,
2013-02-20 11:53:00,18.6,11.4,29.43,WNW,293,14.0,23.0,73,0.00,,,0.00,WUHU216DAVISVP2,2013-02-20 16:53:00,
2013-02-20 11:55:00,18.5,11.3,29.43,NW,304,13.0,23.0,73,0.00,,,0.00,WUHU216DAVISVP2,2013-02-20 16:55:00,
2013-02-20 11:56:00,18.5,11.3,29.43,WNW,296,14.0,23.0,73,0.00,,,0.00,WUHU216DAVISVP2,2013-02-20 16:56:00,
2013-02-20 11:58:00,18.6,11.4,29.43,WNW,289,13.0,23.0,73,0.00,,,0.00,WUHU216DAVISVP2,2013-02-20 16:58:00,
2013-02-20 12:00:00,18.5,11.3,29.43,West,261,13.0,21.0,73,0.00,,,0.00,WUHU216DAVISVP2,2013-02-20 17:00:00,
2013-02-20 12:01:00,18.6,11.4,29.43,WNW,301,16.0,21.0,73,0.00,,,0.00,WUHU216DAVISVP2,2013-02-20 17:01:00,
2013-02-20 12:02:00,18.6,11.4,29.43,NW,305,8.0,21.0,73,0.00,,,0.00,WUHU216DAVISVP2,2013-02-20 17:02:00,
2013-02-20 12:03:00,18.7,11.5,29.43,WNW,302,15.0,21.0,73,0.00,,,0.00,WUHU216DAVISVP2,2013-02-20 17:03:00,
2013-02-20 12:05:00,18.7,11.5,29.43,WNW,287,13.0,21.0,73,0.00,,,0.00,WUHU216DAVISVP2,2013-02-20 17:05:00,
2013-02-20 12:06:00,18.8,11.6,29.43,West,272,9.0,21.0,73,0.00,,,0.00,WUHU216DAVISVP2,2013-02-20 17:06:00,
2013-02-20 12:08:00,18.8,11.6,29.43,WNW,292,12.0,21.0,73,0.00,,,0.00,WUHU216DAVISVP2,2013-02-20 17:08:00,
2013-02-20 12:10:00,19.0,11.8,29.43,NW,305,15.0,21.0,73,0.00,,,0.00,WUHU216DAVISVP2,2013-02-20 17:10:00,
2013-02-20 12:11:00,19.0,11.8,29.43,WNW,287,14.0,21.0,73,0.00,,,0.00,WUHU216DAVISVP2,2013-02-20 17:11:00,
2013-02-20 12:13:00,18.9,11.7,29.43,WNW,297,14.0,21.0,73,0.00,,,0.00,WUHU216DAVISVP2,2013-02-20 17:13:00,
2013-02-20 12:15:00,19.1,11.9,29.43,NW,310,6.0,21.0,73,0.00,,,0.00,WUHU216DAVISVP2,2013-02-20 17:15:00,
2013-02-20 12:16:00,19.3,12.4,29.43,WNW,288,14.0,21.0,74,0.00,,,0.00,WUHU216DAVISVP2,2013-02-20 17:16:00,
2013-02-20 12:18:00,19.2,12.0,29.43,WNW,298,12.0,22.0,73,0.00,,,0.00,WUHU216DAVISVP2,2013-02-20 17:18:00,
2013-02-20 12:20:00,19.2,11.7,29.42,WNW,301,15.0,22.0,72,0.00,,,0.00,WUHU216DAVISVP2,2013-02-20 17:20:00,
2013-02-20 12:22:00,19.1,11.6,29.43,NW,311,8.0,22.0,72,0.00,,,0.00,WUHU216DAVISVP2,2013-02-20 17:22:00,
2013-02-20 12:23:00,19.2,11.7,29.43,NW,322,10.0,22.0,72,0.00,,,0.00,WUHU216DAVISVP2,2013-02-20 17:23:00,
2013-02-20 12:26:00,19.3,12.1,29.43,WNW,299,10.0,22.0,73,0.00,,,0.00,WUHU216DAVISVP2,2013-02-20 17:26:00,
2013-02-20 12:27:00,19.2,11.7,29.43,WNW,297,15.0,22.0,72,0.00,,,0.00,WUHU216DAVISVP2,2013-02-20 17:27:00,
2013-02-20 12:28:00,19.0,11.2,29.42,WNW,300,16.0,22.0,71,0.00,,,0.00,WUHU216DAVISVP2,2013-02-20 17:28:00,
2013-02-20 12:32:00,19.4,12.2,29.42,WNW,296,12.0,22.0,73,0.00,,,0.00,WUHU216DAVISVP2,2013-02-20 17:32:00,
2013-02-20 12:33:00,19.5,12.0,29.42,NW,325,7.0,22.0,72,0.00,,,0.00,WUHU216DAVISVP2,2013-02-20 17:33:00,
2013-02-20 12:34:00,19.5,12.0,29.42,NW,318,9.0,22.0,72,0.00,,,0.00,WUHU216DAVISVP2,2013-02-20 17:34:00,
2013-02-20 12:37:00,19.7,12.2,29.43,NW,308,16.0,22.0,72,0.00,,,0.00,WUHU216DAVISVP2,2013-02-20 17:37:00,
2013-02-20 12:39:00,19.5,11.7,29.43,NW,315,18.0,21.0,71,0.00,,,0.00,WUHU216DAVISVP2,2013-02-20 17:39:00,
2013-02-20 12:42:00,19.5,12.0,29.42,NW,312,12.0,21.0,72,0.00,,,0.00,WUHU216DAVISVP2,2013-02-20 17:42:00,
2013-02-20 12:44:00,19.5,12.0,29.43,NW,305,12.0,21.0,72,0.00,,,0.00,WUHU216DAVISVP2,2013-02-20 17:44:00,
2013-02-20 12:47:00,19.6,12.1,29.43,NNW,337,14.0,21.0,72,0.00,,,0.00,WUHU216DAVISVP2,2013-02-20 17:47:00,
2013-02-20 12:49:00,19.7,12.2,29.42,WNW,301,7.0,21.0,72,0.00,,,0.00,WUHU216DAVISVP2,2013-02-20 17:49:00,
2013-02-20 12:52:00,19.5,11.7,29.43,NW,312,14.0,22.0,71,0.00,,,0.00,WUHU216DAVISVP2,2013-02-20 17:52:00,
2013-02-20 12:53:00,19.4,11.6,29.43,NW,304,13.0,22.0,71,0.00,,,0.00,WUHU216DAVISVP2,2013-02-20 17:53:00,
2013-02-20 12:54:00,19.4,11.6,29.43,NW,308,11.0,22.0,71,0.00,,,0.00,WUHU216DAVISVP2,2013-02-20 17:54:00,
2013-02-20 12:57:00,19.5,13.8,29.43,WNW,301,11.0,22.0,78,0.00,,,0.00,WUHU216DAVISVP2,2013-02-20 17:57:00,
2013-02-20 12:58:00,19.5,12.0,29.42,WNW,300,18.0,22.0,72,0.00,,,0.00,WUHU216DAVISVP2,2013-02-20 17:58:00,
2013-02-20 12:59:00,19.5,11.7,29.42,NW,305,13.0,23.0,71,0.00,,,0.00,WUHU216DAVISVP2,2013-02-20 17:59:00,
2013-02-20 13:00:00,19.5,12.0,29.42,NW,318,10.0,23.0,72,0.00,,,0.00,WUHU216DAVISVP2,2013-02-20 18:00:00,
2013-02-20 13:02:00,19.7,12.2,29.42,NNW,344,8.0,23.0,72,0.00,,,0.00,WUHU216DAVISVP2,2013-02-20 18:02:00,
2013-02-20 13:03:00,19.8,12.3,29.42,WNW,301,11.0,23.0,72,0.00,,,0.00,WUHU216DAVISVP2,2013-02-20 18:03:00,
2013-02-20 13:04:00,19.8,12.3,29.42,NNW,328,11.0,23.0,72,0.00,,,0.00,WUHU216DAVISVP2,2013-02-20 18:04:00,
2013-02-20 13:05:00,19.9,12.4,29.42,WNW,301,8.0,23.0,72,0.00,,,0.00,WUHU216DAVISVP2,2013-02-20 18:05:00,
2013-02-20 13:07:00,20.1,12.6,29.42,NW,320,10.0,23.0,72,0.00,,,0.00,WUHU216DAVISVP2,2013-02-20 18:07:00,
2013-02-20 13:08:00,20.0,12.5,29.43,WNW,300,12.0,23.0,72,0.00,,,0.00,WUHU216DAVISVP2,2013-02-20 18:08:00,
2013-02-20 13:09:00,19.8,12.0,29.43,NW,314,12.0,23.0,71,0.00,,,0.00,WUHU216DAVISVP2,2013-02-20 18:09:00,
2013-02-20 13:10:00,19.8,12.0,29.43,NW,304,15.0,23.0,71,0.00,,,0.00,WUHU216DAVISVP2,2013-02-20 18:10:00,
2013-02-20 13:12:00,19.8,12.3,29.43,NW,310,9.0,23.0,72,0.00,,,0.00,WUHU216DAVISVP2,2013-02-20 18:12:00,
2013-02-20 13:13:00,19.9,12.4,29.42,WNW,299,16.0,23.0,72,0.00,,,0.00,WUHU216DAVISVP2,2013-02-20 18:13:00,
2013-02-20 13:14:00,19.9,12.4,29.42,NW,304,15.0,23.0,72,0.00,,,0.00,WUHU216DAVISVP2,2013-02-20 18:14:00,
2013-02-20 13:15:00,19.9,12.4,29.43,NW,324,9.0,23.0,72,0.00,,,0.00,WUHU216DAVISVP2,2013-02-20 18:15:00,
2013-02-20 13:17:00,20.4,13.2,29.42,WSW,255,8.0,23.0,73,0.00,,,0.00,WUHU216DAVISVP2,2013-02-20 18:17:00,
2013-02-20 13:18:00,20.5,12.9,29.42,WNW,292,11.0,23.0,72,0.00,,,0.00,WUHU216DAVISVP2,2013-02-20 18:18:00,
2013-02-20 13:19:00,20.4,12.9,29.42,NW,310,12.0,23.0,72,0.00,,,0.00,WUHU216DAVISVP2,2013-02-20 18:19:00,
2013-02-20 13:20:00,20.4,12.5,29.42,NW,312,11.0,23.0,71,0.00,,,0.00,WUHU216DAVISVP2,2013-02-20 18:20:00,
2013-02-20 13:22:00,20.5,12.6,29.42,WNW,295,7.0,23.0,71,0.00,,,0.00,WUHU216DAVISVP2,2013-02-20 18:22:00,
2013-02-20 13:23:00,20.5,12.9,29.42,NW,320,13.0,23.0,72,0.00,,,0.00,WUHU216DAVISVP2,2013-02-20 18:23:00,
2013-02-20 13:24:00,20.4,12.5,29.42,NW,308,8.0,23.0,71,0.00,,,0.00,WUHU216DAVISVP2,2013-02-20 18:24:00,
2013-02-20 13:25:00,20.4,12.9,29.42,WNW,288,9.0,23.0,72,0.00,,,0.00,WUHU216DAVISVP2,2013-02-20 18:25:00,
2013-02-20 13:27:00,20.5,12.9,29.42,WNW,290,13.0,23.0,72,0.00,,,0.00,WUHU216DAVISVP2,2013-02-20 18:27:00,
2013-02-20 13:29:00,20.2,12.0,29.42,WNW,296,12.0,20.0,70,0.00,,,0.00,WUHU216DAVISVP2,2013-02-20 18:29:00,
2013-02-20 13:30:00,20.0,11.8,29.42,WNW,297,10.0,20.0,70,0.00,,,0.00,WUHU216DAVISVP2,2013-02-20 18:30:00,
2013-02-20 13:32:00,20.1,12.2,29.42,WNW,296,11.0,20.0,71,0.00,,,0.00,WUHU216DAVISVP2,2013-02-20 18:32:00,
2013-02-20 13:34:00,20.3,12.4,29.42,WNW,295,12.0,20.0,71,0.00,,,0.00,WUHU216DAVISVP2,2013-02-20 18:34:00,
2013-02-20 13:35:00,20.3,12.4,29.42,WNW,297,12.0,20.0,71,0.00,,,0.00,WUHU216DAVISVP2,2013-02-20 18:35:00,
2013-02-20 13:38:00,20.2,12.3,29.42,WNW,303,18.0,20.0,71,0.00,,,0.00,WUHU216DAVISVP2,2013-02-20 18:38:00,
2013-02-20 13:39:00,20.2,12.3,29.42,WNW,288,9.0,20.0,71,0.00,,,0.00,WUHU216DAVISVP2,2013-02-20 18:39:00,
2013-02-20 13:40:00,20.3,12.4,29.42,WNW,291,12.0,20.0,71,0.00,,,0.00,WUHU216DAVISVP2,2013-02-20 18:40:00,
2013-02-20 13:43:00,20.5,12.9,29.42,NW,313,14.0,20.0,72,0.00,,,0.00,WUHU216DAVISVP2,2013-02-20 18:43:00,
2013-02-20 13:44:00,20.6,12.7,29.42,WNW,298,11.0,20.0,71,0.00,,,0.00,WUHU216DAVISVP2,2013-02-20 18:44:00,
2013-02-20 13:46:00,20.7,12.8,29.42,WNW,285,15.0,20.0,71,0.00,,,0.00,WUHU216DAVISVP2,2013-02-20 18:46:00,
2013-02-20 13:48:00,20.7,12.8,29.42,NW,312,9.0,20.0,71,0.00,,,0.00,WUHU216DAVISVP2,2013-02-20 18:48:00,
2013-02-20 13:49:00,20.7,12.8,29.42,WNW,299,12.0,20.0,71,0.00,,,0.00,WUHU216DAVISVP2,2013-02-20 18:49:00,
2013-02-20 13:51:00,20.7,12.5,29.42,WNW,287,13.0,20.0,70,0.00,,,0.00,WUHU216DAVISVP2,2013-02-20 18:51:00,
2013-02-20 13:53:00,20.6,12.4,29.42,NW,320,10.0,20.0,70,0.00,,,0.00,WUHU216DAVISVP2,2013-02-20 18:53:00,
2013-02-20 13:54:00,20.6,12.7,29.42,WNW,303,10.0,20.0,71,0.00,,,0.00,WUHU216DAVISVP2,2013-02-20 18:54:00,
2013-02-20 13:56:00,20.6,12.4,29.42,North,359,13.0,20.0,70,0.00,,,0.00,WUHU216DAVISVP2,2013-02-20 18:56:00,
2013-02-20 13:58:00,20.6,12.7,29.42,WNW,295,15.0,20.0,71,0.00,,,0.00,WUHU216DAVISVP2,2013-02-20 18:58:00,
2013-02-20 13:59:00,20.6,12.4,29.42,WNW,294,9.0,20.0,70,0.00,,,0.00,WUHU216DAVISVP2,2013-02-20 18:59:00,
2013-02-20 14:01:00,20.7,12.8,29.42,West,268,14.0,20.0,71,0.00,,,0.00,WUHU216DAVISVP2,2013-02-20 19:01:00,
2013-02-20 14:03:00,20.7,12.8,29.43,WNW,295,8.0,20.0,71,0.00,,,0.00,WUHU216DAVISVP2,2013-02-20 19:03:00,
2013-02-20 14:05:00,20.8,12.9,29.43,NW,315,10.0,20.0,71,0.00,,,0.00,WUHU216DAVISVP2,2013-02-20 19:05:00,
2013-02-20 14:06:00,21.1,13.5,29.43,WNW,293,15.0,20.0,72,0.00,,,0.00,WUHU216DAVISVP2,2013-02-20 19:06:00,
2013-02-20 14:09:00,21.0,13.1,29.43,NW,310,14.0,22.0,71,0.00,,,0.00,WUHU216DAVISVP2,2013-02-20 19:09:00,
2013-02-20 14:10:00,20.8,12.6,29.43,NW,316,10.0,22.0,70,0.00,,,0.00,WUHU216DAVISVP2,2013-02-20 19:10:00,
2013-02-20 14:11:00,20.8,12.6,29.43,West,272,9.0,22.0,70,0.00,,,0.00,WUHU216DAVISVP2,2013-02-20 19:11:00,
2013-02-20 14:14:00,20.8,12.9,29.43,West,280,15.0,22.0,71,0.00,,,0.00,WUHU216DAVISVP2,2013-02-20 19:14:00,
2013-02-20 14:15:00,20.9,13.0,29.43,WNW,289,9.0,22.0,71,0.00,,,0.00,WUHU216DAVISVP2,2013-02-20 19:15:00,
2013-02-20 14:16:00,20.9,13.0,29.43,WNW,290,16.0,22.0,71,0.00,,,0.00,WUHU216DAVISVP2,2013-02-20 19:16:00,
2013-02-20 14:19:00,20.7,12.5,29.43,WNW,287,14.0,22.0,70,0.00,,,0.00,WUHU216DAVISVP2,2013-02-20 19:19:00,
2013-02-20 14:20:00,20.7,12.5,29.43,WNW,296,15.0,22.0,70,0.00,,,0.00,WUHU216DAVISVP2,2013-02-20 19:20:00,
2013-02-20 14:21:00,20.7,12.8,29.43,WNW,303,16.0,22.0,71,0.00,,,0.00,WUHU216DAVISVP2,2013-02-20 19:21:00,
2013-02-20 14:24:00,20.8,12.9,29.43,NW,308,8.0,22.0,71,0.00,,,0.00,WUHU216DAVISVP2,2013-02-20 19:24:00,
2013-02-20 14:25:00,20.8,12.9,29.43,WNW,291,12.0,22.0,71,0.00,,,0.00,WUHU216DAVISVP2,2013-02-20 19:25:00,
2013-02-20 14:26:00,20.8,12.9,29.43,West,278,15.0,20.0,71,0.00,,,0.00,WUHU216DAVISVP2,2013-02-20 19:26:00,
2013-02-20 14:29:00,20.7,12.8,29.43,NW,317,10.0,20.0,71,0.00,,,0.00,WUHU216DAVISVP2,2013-02-20 19:29:00,
2013-02-20 14:30:00,20.9,13.0,29.43,WNW,298,12.0,20.0,71,0.00,,,0.00,WUHU216DAVISVP2,2013-02-20 19:30:00,
2013-02-20 14:31:00,20.9,13.0,29.43,WNW,298,14.0,20.0,71,0.00,,,0.00,WUHU216DAVISVP2,2013-02-20 19:31:00,
2013-02-20 14:34:00,20.8,12.9,29.43,WNW,287,11.0,20.0,71,0.00,,,0.00,WUHU216DAVISVP2,2013-02-20 19:34:00,
2013-02-20 14:35:00,20.8,12.9,29.44,NW,313,10.0,20.0,71,0.00,,,0.00,WUHU216DAVISVP2,2013-02-20 19:35:00,
2013-02-20 14:36:00,20.8,12.9,29.44,WNW,297,12.0,20.0,71,0.00,,,0.00,WUHU216DAVISVP2,2013-02-20 19:36:00,
2013-02-20 14:37:00,20.8,12.9,29.44,NW,316,9.0,20.0,71,0.00,,,0.00,WUHU216DAVISVP2,2013-02-20 19:37:00,
2013-02-20 14:39:00,21.0,13.4,29.44,West,276,18.0,20.0,72,0.00,,,0.00,WUHU216DAVISVP2,2013-02-20 19:39:00,
2013-02-20 14:40:00,20.9,13.3,29.44,WNW,284,16.0,20.0,72,0.00,,,0.00,WUHU216DAVISVP2,2013-02-20 19:40:00,
2013-02-20 14:41:00,20.7,12.8,29.44,WNW,287,9.0,20.0,71,0.00,,,0.00,WUHU216DAVISVP2,2013-02-20 19:41:00,
2013-02-20 14:42:00,20.7,12.8,29.44,West,274,18.0,20.0,71,0.00,,,0.00,WUHU216DAVISVP2,2013-02-20 19:42:00,
2013-02-20 14:44:00,20.8,13.2,29.44,WNW,284,10.0,20.0,72,0.00,,,0.00,WUHU216DAVISVP2,2013-02-20 19:44:00,
2013-02-20 14:45:00,20.9,13.3,29.44,WNW,290,11.0,20.0,72,0.00,,,0.00,WUHU216DAVISVP2,2013-02-20 19:45:00,
2013-02-20 14:46:00,20.9,13.3,29.44,NW,308,12.0,20.0,72,0.00,,,0.00,WUHU216DAVISVP2,2013-02-20 19:46:00,
2013-02-20 14:47:00,20.9,13.0,29.44,WNW,301,12.0,20.0,71,0.00,,,0.00,WUHU216DAVISVP2,2013-02-20 19:47:00,
2013-02-20 14:49:00,20.9,13.0,29.44,WNW,291,8.0,20.0,71,0.00,,,0.00,WUHU216DAVISVP2,2013-02-20 19:49:00,
2013-02-20 14:50:00,21.0,13.4,29.44,WNW,293,14.0,20.0,72,0.00,,,0.00,WUHU216DAVISVP2,2013-02-20 19:50:00,
2013-02-20 14:51:00,20.9,13.0,29.44,NW,310,9.0,20.0,71,0.00,,,0.00,WUHU216DAVISVP2,2013-02-20 19:51:00,
2013-02-20 14:53:00,20.9,13.0,29.44,NW,315,13.0,20.0,71,0.00,,,0.00,WUHU216DAVISVP2,2013-02-20 19:53:00,
2013-02-20 14:54:00,20.9,13.3,29.44,WNW,295,16.0,20.0,72,0.00,,,0.00,WUHU216DAVISVP2,2013-02-20 19:54:00,
2013-02-20 14:55:00,21.0,13.4,29.44,West,279,14.0,22.0,72,0.00,,,0.00,WUHU216DAVISVP2,2013-02-20 19:55:00,
2013-02-20 14:56:00,20.9,13.0,29.44,WNW,297,20.0,22.0,71,0.00,,,0.00,WUHU216DAVISVP2,2013-02-20 19:56:00,
2013-02-20 14:58:00,20.9,13.0,29.44,NW,312,13.0,22.0,71,0.00,,,0.00,WUHU216DAVISVP2,2013-02-20 19:58:00,
2013-02-20 14:59:00,20.9,13.0,29.44,NW,306,12.0,22.0,71,0.00,,,0.00,WUHU216DAVISVP2,2013-02-20 19:59:00,
2013-02-20 15:00:00,20.9,13.0,29.44,NW,307,10.0,22.0,71,0.00,,,0.00,WUHU216DAVISVP2,2013-02-20 20:00:00,
2013-02-20 15:01:00,21.0,13.4,29.44,NW,311,10.0,22.0,72,0.00,,,0.00,WUHU216DAVISVP2,2013-02-20 20:01:00,
2013-02-20 15:03:00,21.0,13.1,29.44,WNW,282,15.0,22.0,71,0.00,,,0.00,WUHU216DAVISVP2,2013-02-20 20:03:00,
2013-02-20 15:04:00,21.0,13.1,29.44,WNW,293,13.0,22.0,71,0.00,,,0.00,WUHU216DAVISVP2,2013-02-20 20:04:00,
2013-02-20 15:06:00,21.0,13.4,29.44,NW,304,10.0,22.0,72,0.00,,,0.00,WUHU216DAVISVP2,2013-02-20 20:06:00,
2013-02-20 15:07:00,21.1,13.5,29.44,NW,310,8.0,22.0,72,0.00,,,0.00,WUHU216DAVISVP2,2013-02-20 20:07:00,
2013-02-20 15:08:00,21.1,13.5,29.44,WNW,293,14.0,22.0,72,0.00,,,0.00,WUHU216DAVISVP2,2013-02-20 20:08:00,
2013-02-20 15:09:00,21.1,13.5,29.44,WNW,283,11.0,22.0,72,0.00,,,0.00,WUHU216DAVISVP2,2013-02-20 20:09:00,
2013-02-20 15:11:00,21.1,13.5,29.44,WNW,296,11.0,22.0,72,0.00,,,0.00,WUHU216DAVISVP2,2013-02-20 20:11:00,
2013-02-20 15:12:00,21.1,13.5,29.44,NW,304,14.0,22.0,72,0.00,,,0.00,WUHU216DAVISVP2,2013-02-20 20:12:00,
2013-02-20 15:13:00,21.2,13.6,29.44,NW,310,11.0,22.0,72,0.00,,,0.00,WUHU216DAVISVP2,2013-02-20 20:13:00,
2013-02-20 15:14:00,21.2,13.3,29.44,WNW,289,12.0,20.0,71,0.00,,,0.00,WUHU216DAVISVP2,2013-02-20 20:14:00,
2013-02-20 15:16:00,21.2,13.3,29.44,NW,304,14.0,20.0,71,0.00,,,0.00,WUHU216DAVISVP2,2013-02-20 20:16:00,
2013-02-20 15:17:00,21.2,13.3,29.44,WNW,295,11.0,20.0,71,0.00,,,0.00,WUHU216DAVISVP2,2013-02-20 20:17:00,
2013-02-20 15:18:00,21.2,13.3,29.44,NW,305,12.0,20.0,71,0.00,,,0.00,WUHU216DAVISVP2,2013-02-20 20:18:00,
2013-02-20 15:20:00,21.2,13.3,29.44,NW,326,15.0,20.0,71,0.00,,,0.00,WUHU216DAVISVP2,2013-02-20 20:20:00,
2013-02-20 15:21:00,21.2,13.3,29.44,NNW,328,9.0,20.0,71,0.00,,,0.00,WUHU216DAVISVP2,2013-02-20 20:21:00,
2013-02-20 15:22:00,21.3,13.4,29.44,NW,316,9.0,20.0,71,0.00,,,0.00,WUHU216DAVISVP2,2013-02-20 20:22:00,
2013-02-20 15:23:00,21.3,13.7,29.44,WNW,297,16.0,20.0,72,0.00,,,0.00,WUHU216DAVISVP2,2013-02-20 20:23:00,
2013-02-20 15:25:00,21.2,13.3,29.44,NW,305,8.0,20.0,71,0.00,,,0.00,WUHU216DAVISVP2,2013-02-20 20:25:00,
2013-02-20 15:26:00,21.2,13.6,29.44,NW,314,11.0,20.0,72,0.00,,,0.00,WUHU216DAVISVP2,2013-02-20 20:26:00,
2013-02-20 15:27:00,21.2,13.6,29.44,NW,307,9.0,20.0,72,0.00,,,0.00,WUHU216DAVISVP2,2013-02-20 20:27:00,
2013-02-20 15:28:00,21.3,13.7,29.44,NW,310,10.0,20.0,72,0.00,,,0.00,WUHU216DAVISVP2,2013-02-20 20:28:00,
2013-02-20 15:30:00,21.2,13.6,29.44,NW,311,8.0,20.0,72,0.00,,,0.00,WUHU216DAVISVP2,2013-02-20 20:30:00,
2013-02-20 15:31:00,21.2,13.6,29.44,WNW,301,14.0,20.0,72,0.00,,,0.00,WUHU216DAVISVP2,2013-02-20 20:31:00,
2013-02-20 15:32:00,21.2,13.6,29.44,NW,321,8.0,20.0,72,0.00,,,0.00,WUHU216DAVISVP2,2013-02-20 20:32:00,
2013-02-20 15:33:00,21.3,14.0,29.44,NW,309,12.0,20.0,73,0.00,,,0.00,WUHU216DAVISVP2,2013-02-20 20:33:00,
2013-02-20 15:35:00,21.2,13.6,29.44,NW,324,11.0,20.0,72,0.00,,,0.00,WUHU216DAVISVP2,2013-02-20 20:35:00,
2013-02-20 15:37:00,21.2,13.9,29.44,NW,314,12.0,20.0,73,0.00,,,0.00,WUHU216DAVISVP2,2013-02-20 20:37:00,
2013-02-20 15:38:00,21.1,13.8,29.44,NW,305,8.0,20.0,73,0.00,,,0.00,WUHU216DAVISVP2,2013-02-20 20:38:00,
2013-02-20 15:41:00,21.1,14.1,29.44,NNW,343,10.0,20.0,74,0.00,,,0.00,WUHU216DAVISVP2,2013-02-20 20:41:00,
2013-02-20 15:42:00,21.1,14.1,29.44,NNW,329,18.0,20.0,74,0.00,,,0.00,WUHU216DAVISVP2,2013-02-20 20:42:00,
2013-02-20 15:43:00,21.2,13.9,29.44,North,354,9.0,20.0,73,0.00,,,0.00,WUHU216DAVISVP2,2013-02-20 20:43:00,
2013-02-20 15:46:00,21.4,14.4,29.44,NW,314,9.0,20.0,74,0.00,,,0.00,WUHU216DAVISVP2,2013-02-20 20:46:00,
2013-02-20 15:47:00,21.5,14.2,29.44,NW,318,13.0,20.0,73,0.00,,,0.00,WUHU216DAVISVP2,2013-02-20 20:47:00,
2013-02-20 15:49:00,21.5,14.2,29.44,NW,322,7.0,20.0,73,0.00,,,0.00,WUHU216DAVISVP2,2013-02-20 20:49:00,
2013-02-20 15:51:00,21.4,14.1,29.44,NW,313,16.0,20.0,73,0.00,,,0.00,WUHU216DAVISVP2,2013-02-20 20:51:00,
2013-02-20 15:52:00,21.3,13.7,29.44,NW,326,14.0,20.0,72,0.00,,,0.00,WUHU216DAVISVP2,2013-02-20 20:52:00,
2013-02-20 15:54:00,21.3,13.4,29.44,NW,321,7.0,20.0,71,0.00,,,0.00,WUHU216DAVISVP2,2013-02-20 20:54:00,
2013-02-20 15:56:00,21.4,13.8,29.44,NW,310,9.0,19.0,72,0.00,,,0.00,WUHU216DAVISVP2,2013-02-20 20:56:00,
2013-02-20 15:57:00,21.5,13.9,29.44,NW,316,7.0,19.0,72,0.00,,,0.00,WUHU216DAVISVP2,2013-02-20 20:57:00,
2013-02-20 15:59:00,21.6,14.0,29.44,NNW,343,15.0,19.0,72,0.00,,,0.00,WUHU216DAVISVP2,2013-02-20 20:59:00,
2013-02-20 16:01:00,21.6,14.0,29.44,NNW,348,10.0,19.0,72,0.00,,,0.00,WUHU216DAVISVP2,2013-02-20 21:01:00,
2013-02-20 16:02:00,21.6,14.0,29.44,NW,314,7.0,19.0,72,0.00,,,0.00,WUHU216DAVISVP2,2013-02-20 21:02:00,
2013-02-20 16:04:00,21.7,14.4,29.44,NW,310,8.0,19.0,73,0.00,,,0.00,WUHU216DAVISVP2,2013-02-20 21:04:00,
2013-02-20 16:06:00,21.8,14.5,29.44,NNW,333,12.0,19.0,73,0.00,,,0.00,WUHU216DAVISVP2,2013-02-20 21:06:00,
2013-02-20 16:07:00,21.8,14.2,29.44,NW,314,11.0,19.0,72,0.00,,,0.00,WUHU216DAVISVP2,2013-02-20 21:07:00,
2013-02-20 16:09:00,21.8,14.2,29.44,NW,320,9.0,19.0,72,0.00,,,0.00,WUHU216DAVISVP2,2013-02-20 21:09:00,
2013-02-20 16:12:00,21.7,13.8,29.44,NW,312,9.0,16.0,71,0.00,,,0.00,WUHU216DAVISVP2,2013-02-20 21:12:00,
2013-02-20 16:14:00,21.8,14.2,29.44,NW,317,13.0,18.0,72,0.00,,,0.00,WUHU216DAVISVP2,2013-02-20 21:14:00,
2013-02-20 16:17:00,21.9,14.3,29.44,NW,315,10.0,18.0,72,0.00,,,0.00,WUHU216DAVISVP2,2013-02-20 21:17:00,
2013-02-20 16:19:00,22.0,14.4,29.44,WNW,303,11.0,18.0,72,0.00,,,0.00,WUHU216DAVISVP2,2013-02-20 21:19:00,
2013-02-20 16:22:00,21.9,14.3,29.44,NW,310,11.0,18.0,72,0.00,,,0.00,WUHU216DAVISVP2,2013-02-20 21:22:00,
2013-02-20 16:24:00,21.8,14.2,29.44,WNW,300,11.0,18.0,72,0.00,,,0.00,WUHU216DAVISVP2,2013-02-20 21:24:00,
2013-02-20 16:27:00,21.8,14.2,29.44,NW,308,7.0,19.0,72,0.00,,,0.00,WUHU216DAVISVP2,2013-02-20 21:27:00,
2013-02-20 16:29:00,21.8,14.2,29.44,NNW,341,7.0,19.0,72,0.00,,,0.00,WUHU216DAVISVP2,2013-02-20 21:29:00,
2013-02-20 16:30:00,21.8,14.2,29.44,NW,312,9.0,19.0,72,0.00,,,0.00,WUHU216DAVISVP2,2013-02-20 21:30:00,
2013-02-20 16:32:00,21.7,13.8,29.44,NW,309,11.0,19.0,71,0.00,,,0.00,WUHU216DAVISVP2,2013-02-20 21:32:00,
2013-02-20 16:33:00,21.7,13.8,29.44,NW,309,11.0,19.0,71,0.00,,,0.00,WUHU216DAVISVP2,2013-02-20 21:33:00,
2013-02-20 16:34:00,21.7,13.8,29.44,NW,321,8.0,19.0,71,0.00,,,0.00,WUHU216DAVISVP2,2013-02-20 21:34:00,
2013-02-20 16:35:00,21.7,13.8,29.44,NNW,330,9.0,19.0,71,0.00,,,0.00,WUHU216DAVISVP2,2013-02-20 21:35:00,
2013-02-20 16:38:00,21.7,14.1,29.44,NNW,338,14.0,19.0,72,0.00,,,0.00,WUHU216DAVISVP2,2013-02-20 21:38:00,
2013-02-20 16:39:00,21.7,14.1,29.44,North,349,8.0,19.0,72,0.00,,,0.00,WUHU216DAVISVP2,2013-02-20 21:39:00,
2013-02-20 16:40:00,21.7,14.1,29.44,NW,310,15.0,19.0,72,0.00,,,0.00,WUHU216DAVISVP2,2013-02-20 21:40:00,
2013-02-20 16:43:00,21.6,14.0,29.44,NW,315,11.0,19.0,72,0.00,,,0.00,WUHU216DAVISVP2,2013-02-20 21:43:00,
2013-02-20 16:44:00,21.6,14.0,29.44,NW,319,12.0,19.0,72,0.00,,,0.00,WUHU216DAVISVP2,2013-02-20 21:44:00,
2013-02-20 16:45:00,21.6,14.0,29.44,NW,315,10.0,19.0,72,0.00,,,0.00,WUHU216DAVISVP2,2013-02-20 21:45:00,
2013-02-20 16:48:00,21.6,14.0,29.44,NNW,336,9.0,19.0,72,0.00,,,0.00,WUHU216DAVISVP2,2013-02-20 21:48:00,
2013-02-20 16:49:00,21.7,14.4,29.44,North,354,12.0,19.0,73,0.00,,,0.00,WUHU216DAVISVP2,2013-02-20 21:49:00,
2013-02-20 16:50:00,21.7,14.4,29.44,NNW,332,10.0,19.0,73,0.00,,,0.00,WUHU216DAVISVP2,2013-02-20 21:50:00,
2013-02-20 16:53:00,21.7,14.4,29.44,NNW,341,10.0,19.0,73,0.00,,,0.00,WUHU216DAVISVP2,2013-02-20 21:53:00,
2013-02-20 16:54:00,21.7,14.1,29.44,NNW,334,12.0,19.0,72,0.00,,,0.00,WUHU216DAVISVP2,2013-02-20 21:54:00,
2013-02-20 16:55:00,21.6,14.0,29.44,NW,321,8.0,19.0,72,0.00,,,0.00,WUHU216DAVISVP2,2013-02-20 21:55:00,
2013-02-20 16:58:00,21.6,14.0,29.43,NNW,336,9.0,18.0,72,0.00,,,0.00,WUHU216DAVISVP2,2013-02-20 21:58:00,
2013-02-20 17:00:00,21.6,13.7,29.43,NNW,339,10.0,18.0,71,0.00,,,0.00,WUHU216DAVISVP2,2013-02-20 22:00:00,
2013-02-20 17:01:00,21.6,14.0,29.43,NNW,344,12.0,18.0,72,0.00,,,0.00,WUHU216DAVISVP2,2013-02-20 22:01:00,
2013-02-20 17:03:00,21.5,13.9,29.44,NW,324,12.0,18.0,72,0.00,,,0.00,WUHU216DAVISVP2,2013-02-20 22:03:00,
2013-02-20 17:04:00,21.6,14.0,29.44,NW,318,9.0,18.0,72,0.00,,,0.00,WUHU216DAVISVP2,2013-02-20 22:04:00,
2013-02-20 17:05:00,21.6,14.0,29.43,NNW,345,9.0,18.0,72,0.00,,,0.00,WUHU216DAVISVP2,2013-02-20 22:05:00,
2013-02-20 17:06:00,21.6,14.0,29.44,NW,320,9.0,18.0,72,0.00,,,0.00,WUHU216DAVISVP2,2013-02-20 22:06:00,
2013-02-20 17:09:00,21.6,14.0,29.44,NNW,340,13.0,18.0,72,0.00,,,0.00,WUHU216DAVISVP2,2013-02-20 22:09:00,
2013-02-20 17:10:00,21.6,14.0,29.43,NNW,332,11.0,21.0,72,0.00,,,0.00,WUHU216DAVISVP2,2013-02-20 22:10:00,
2013-02-20 17:11:00,21.5,13.9,29.43,NNW,336,13.0,21.0,72,0.00,,,0.00,WUHU216DAVISVP2,2013-02-20 22:11:00,
2013-02-20 17:14:00,21.5,13.9,29.43,NW,326,13.0,21.0,72,0.00,,,0.00,WUHU216DAVISVP2,2013-02-20 22:14:00,
2013-02-20 17:15:00,21.5,14.2,29.43,NNW,329,16.0,21.0,73,0.00,,,0.00,WUHU216DAVISVP2,2013-02-20 22:15:00,
2013-02-20 17:16:00,21.4,14.1,29.43,NNW,343,12.0,21.0,73,0.00,,,0.00,WUHU216DAVISVP2,2013-02-20 22:16:00,
2013-02-20 17:19:00,21.4,14.1,29.43,NNW,347,14.0,21.0,73,0.00,,,0.00,WUHU216DAVISVP2,2013-02-20 22:19:00,
2013-02-20 17:20:00,21.3,14.0,29.43,NW,318,13.0,21.0,73,0.00,,,0.00,WUHU216DAVISVP2,2013-02-20 22:20:00,
2013-02-20 17:21:00,21.3,14.0,29.43,NW,317,10.0,21.0,73,0.00,,,0.00,WUHU216DAVISVP2,2013-02-20 22:21:00,
2013-02-20 17:24:00,21.3,14.0,29.43,NNW,339,16.0,21.0,73,0.00,,,0.00,WUHU216DAVISVP2,2013-02-20 22:24:00,
2013-02-20 17:25:00,21.3,14.0,29.44,NNW,344,16.0,21.0,73,0.00,,,0.00,WUHU216DAVISVP2,2013-02-20 22:25:00,
2013-02-20 17:26:00,21.3,14.0,29.44,NNW,346,13.0,21.0,73,0.00,,,0.00,WUHU216DAVISVP2,2013-02-20 22:26:00,
2013-02-20 17:29:00,21.3,14.0,29.44,NNW,330,16.0,21.0,73,0.00,,,0.00,WUHU216DAVISVP2,2013-02-20 22:29:00,
2013-02-20 17:30:00,21.2,13.9,29.44,NNW,328,14.0,21.0,73,0.00,,,0.00,WUHU216DAVISVP2,2013-02-20 22:30:00,
2013-02-20 17:31:00,21.2,13.9,29.44,North,354,12.0,21.0,73,0.00,,,0.00,WUHU216DAVISVP2,2013-02-20 22:31:00,
2013-02-20 17:34:00,21.3,14.3,29.44,NNW,332,7.0,21.0,74,0.00,,,0.00,WUHU216DAVISVP2,2013-02-20 22:34:00,
2013-02-20 17:35:00,21.3,14.3,29.44,NW,326,9.0,21.0,74,0.00,,,0.00,WUHU216DAVISVP2,2013-02-20 22:35:00,
2013-02-20 17:36:00,21.3,14.3,29.44,North,359,10.0,21.0,74,0.00,,,0.00,WUHU216DAVISVP2,2013-02-20 22:36:00,
2013-02-20 17:39:00,21.3,14.3,29.44,North,359,11.0,19.0,74,0.00,,,0.00,WUHU216DAVISVP2,2013-02-20 22:39:00,
2013-02-20 17:40:00,21.3,14.3,29.44,NNW,340,8.0,19.0,74,0.00,,,0.00,WUHU216DAVISVP2,2013-02-20 22:40:00,
2013-02-20 17:42:00,21.4,14.4,29.44,NNW,332,10.0,19.0,74,0.00,,,0.00,WUHU216DAVISVP2,2013-02-20 22:42:00,
2013-02-20 17:44:00,21.4,14.4,29.44,NNW,330,13.0,19.0,74,0.00,,,0.00,WUHU216DAVISVP2,2013-02-20 22:44:00,
2013-02-20 17:45:00,21.4,14.4,29.45,NNW,333,11.0,19.0,74,0.00,,,0.00,WUHU216DAVISVP2,2013-02-20 22:45:00,
2013-02-20 17:46:00,21.4,14.4,29.45,NNW,341,13.0,19.0,74,0.00,,,0.00,WUHU216DAVISVP2,2013-02-20 22:46:00,
2013-02-20 17:47:00,21.3,14.0,29.45,NNW,332,6.0,19.0,73,0.00,,,0.00,WUHU216DAVISVP2,2013-02-20 22:47:00,
2013-02-20 17:49:00,21.3,14.3,29.45,NNW,327,11.0,18.0,74,0.00,,,0.00,WUHU216DAVISVP2,2013-02-20 22:49:00,
2013-02-20 17:50:00,21.3,14.3,29.45,NNW,335,9.0,18.0,74,0.00,,,0.00,WUHU216DAVISVP2,2013-02-20 22:50:00,
2013-02-20 17:51:00,21.3,14.3,29.45,NW,325,14.0,18.0,74,0.00,,,0.00,WUHU216DAVISVP2,2013-02-20 22:51:00,
2013-02-20 17:52:00,21.3,14.3,29.45,NNW,328,12.0,18.0,74,0.00,,,0.00,WUHU216DAVISVP2,2013-02-20 22:52:00,
2013-02-20 17:54:00,21.3,14.0,29.45,NNW,346,11.0,18.0,73,0.00,,,0.00,WUHU216DAVISVP2,2013-02-20 22:54:00,
2013-02-20 17:55:00,21.3,14.0,29.45,North,11,9.0,18.0,73,0.00,,,0.00,WUHU216DAVISVP2,2013-02-20 22:55:00,
2013-02-20 17:56:00,21.2,13.9,29.45,North,359,9.0,18.0,73,0.00,,,0.00,WUHU216DAVISVP2,2013-02-20 22:56:00,
2013-02-20 17:58:00,21.3,14.3,29.45,NNW,332,11.0,18.0,74,0.00,,,0.00,WUHU216DAVISVP2,2013-02-20 22:58:00,
2013-02-20 17:59:00,21.3,14.0,29.45,NNW,330,13.0,18.0,73,0.00,,,0.00,WUHU216DAVISVP2,2013-02-20 22:59:00,
2013-02-20 18:00:00,21.2,13.9,29.45,NNW,347,10.0,18.0,73,0.00,,,0.00,WUHU216DAVISVP2,2013-02-20 23:00:00,
2013-02-20 18:01:00,21.3,14.0,29.45,NNW,340,8.0,18.0,73,0.00,,,0.00,WUHU216DAVISVP2,2013-02-20 23:01:00,
2013-02-20 18:03:00,21.3,14.3,29.45,NNW,341,6.0,18.0,74,0.00,,,0.00,WUHU216DAVISVP2,2013-02-20 23:03:00,
2013-02-20 18:05:00,21.3,14.3,29.45,NW,326,7.0,18.0,74,0.00,,,0.00,WUHU216DAVISVP2,2013-02-20 23:05:00,
2013-02-20 18:06:00,21.3,14.3,29.45,NNW,333,9.0,16.0,74,0.00,,,0.00,WUHU216DAVISVP2,2013-02-20 23:06:00,
2013-02-20 18:08:00,21.4,14.4,29.46,NNW,336,13.0,16.0,74,0.00,,,0.00,WUHU216DAVISVP2,2013-02-20 23:08:00,
2013-02-20 18:10:00,21.4,14.1,29.46,NNW,335,8.0,18.0,73,0.00,,,0.00,WUHU216DAVISVP2,2013-02-20 23:10:00,
2013-02-20 18:11:00,21.3,14.0,29.46,NNW,348,11.0,18.0,73,0.00,,,0.00,WUHU216DAVISVP2,2013-02-20 23:11:00,
2013-02-20 18:13:00,21.4,14.1,29.46,NNW,343,12.0,18.0,73,0.00,,,0.00,WUHU216DAVISVP2,2013-02-20 23:13:00,
2013-02-20 18:15:00,21.4,14.1,29.46,NW,324,12.0,18.0,73,0.00,,,0.00,WUHU216DAVISVP2,2013-02-20 23:15:00,
2013-02-20 18:17:00,21.4,14.1,29.46,NNW,335,13.0,18.0,73,0.00,,,0.00,WUHU216DAVISVP2,2013-02-20 23:17:00,
2013-02-20 18:18:00,21.4,14.1,29.46,NNW,330,14.0,18.0,73,0.00,,,0.00,WUHU216DAVISVP2,2013-02-20 23:18:00,
2013-02-20 18:20:00,21.4,14.4,29.46,NNW,338,11.0,18.0,74,0.00,,,0.00,WUHU216DAVISVP2,2013-02-20 23:20:00,
2013-02-20 18:21:00,21.4,14.4,29.46,NNW,330,10.0,18.0,74,0.00,,,0.00,WUHU216DAVISVP2,2013-02-20 23:21:00,
2013-02-20 18:22:00,21.4,14.4,29.46,NNW,343,12.0,18.0,74,0.00,,,0.00,WUHU216DAVISVP2,2013-02-20 23:22:00,
2013-02-20 18:23:00,21.4,14.4,29.46,NNW,336,9.0,18.0,74,0.00,,,0.00,WUHU216DAVISVP2,2013-02-20 23:23:00,
2013-02-20 18:25:00,21.4,14.1,29.46,North,349,11.0,18.0,73,0.00,,,0.00,WUHU216DAVISVP2,2013-02-20 23:25:00,
2013-02-20 18:26:00,21.4,14.1,29.46,NNW,339,12.0,18.0,73,0.00,,,0.00,WUHU216DAVISVP2,2013-02-20 23:26:00,
2013-02-20 18:27:00,21.5,14.2,29.46,NNW,333,9.0,18.0,73,0.00,,,0.00,WUHU216DAVISVP2,2013-02-20 23:27:00,
2013-02-20 18:29:00,21.5,14.2,29.46,NNW,330,11.0,16.0,73,0.00,,,0.00,WUHU216DAVISVP2,2013-02-20 23:29:00,
2013-02-20 18:30:00,21.5,14.2,29.46,North,354,10.0,16.0,73,0.00,,,0.00,WUHU216DAVISVP2,2013-02-20 23:30:00,
2013-02-20 18:31:00,21.5,14.2,29.46,North,354,11.0,16.0,73,0.00,,,0.00,WUHU216DAVISVP2,2013-02-20 23:31:00,
2013-02-20 18:32:00,21.5,14.5,29.46,North,354,7.0,16.0,74,0.00,,,0.00,WUHU216DAVISVP2,2013-02-20 23:32:00,
2013-02-20 18:34:00,21.5,14.2,29.46,North,354,13.0,16.0,73,0.00,,,0.00,WUHU216DAVISVP2,2013-02-20 23:34:00,
2013-02-20 18:35:00,21.5,14.2,29.46,NNW,345,9.0,16.0,73,0.00,,,0.00,WUHU216DAVISVP2,2013-02-20 23:35:00,
2013-02-20 18:36:00,21.4,14.1,29.46,NNW,347,11.0,16.0,73,0.00,,,0.00,WUHU216DAVISVP2,2013-02-20 23:36:00,
2013-02-20 18:37:00,21.4,14.1,29.46,NNW,331,15.0,16.0,73,0.00,,,0.00,WUHU216DAVISVP2,2013-02-20 23:37:00,
2013-02-20 18:39:00,21.4,14.1,29.46,NNW,327,9.0,16.0,73,0.00,,,0.00,WUHU216DAVISVP2,2013-02-20 23:39:00,
2013-02-20 18:41:00,21.4,14.1,29.46,NNW,334,9.0,16.0,73,0.00,,,0.00,WUHU216DAVISVP2,2013-02-20 23:41:00,
2013-02-20 18:42:00,21.4,14.1,29.46,NNW,330,6.0,16.0,73,0.00,,,0.00,WUHU216DAVISVP2,2013-02-20 23:42:00,
2013-02-20 18:44:00,21.4,14.1,29.46,NW,326,14.0,16.0,73,0.00,,,0.00,WUHU216DAVISVP2,2013-02-20 23:44:00,
2013-02-20 18:46:00,21.4,14.1,29.46,NNW,347,10.0,16.0,73,0.00,,,0.00,WUHU216DAVISVP2,2013-02-20 23:46:00,
2013-02-20 18:47:00,21.3,14.0,29.46,NNW,343,11.0,18.0,73,0.00,,,0.00,WUHU216DAVISVP2,2013-02-20 23:47:00,
2013-02-20 18:49:00,21.3,14.0,29.46,North,350,14.0,18.0,73,0.00,,,0.00,WUHU216DAVISVP2,2013-02-20 23:49:00,
2013-02-20 18:51:00,21.3,14.0,29.47,NW,324,8.0,18.0,73,0.00,,,0.00,WUHU216DAVISVP2,2013-02-20 23:51:00,
2013-02-20 18:52:00,21.3,14.0,29.47,NNW,333,9.0,18.0,73,0.00,,,0.00,WUHU216DAVISVP2,2013-02-20 23:52:00,
2013-02-20 18:54:00,21.3,14.0,29.47,NNW,348,10.0,18.0,73,0.00,,,0.00,WUHU216DAVISVP2,2013-02-20 23:54:00,
2013-02-20 18:56:00,21.3,14.3,29.47,NNW,342,12.0,18.0,74,0.00,,,0.00,WUHU216DAVISVP2,2013-02-20 23:56:00,
2013-02-20 18:57:00,21.3,14.3,29.47,NNW,342,12.0,18.0,74,0.00,,,0.00,WUHU216DAVISVP2,2013-02-20 23:57:00,
2013-02-20 18:59:00,21.2,14.2,29.47,NNW,337,9.0,18.0,74,0.00,,,0.00,WUHU216DAVISVP2,2013-02-20 23:59:00,
2013-02-20 19:01:00,21.2,14.2,29.47,North,354,8.0,18.0,74,0.00,,,0.00,WUHU216DAVISVP2,2013-02-21 00:01:00,
2013-02-20 19:02:00,21.2,14.2,29.47,NNW,331,10.0,18.0,74,0.00,,,0.00,WUHU216DAVISVP2,2013-02-21 00:02:00,
2013-02-20 19:04:00,21.2,14.2,29.47,NNW,335,8.0,18.0,74,0.00,,,0.00,WUHU216DAVISVP2,2013-02-21 00:04:00,
2013-02-20 19:06:00,21.2,14.2,29.46,NNW,328,10.0,16.0,74,0.00,,,0.00,WUHU216DAVISVP2,2013-02-21 00:06:00,
2013-02-20 19:07:00,21.2,14.2,29.46,NNW,337,10.0,16.0,74,0.00,,,0.00,WUHU216DAVISVP2,2013-02-21 00:07:00,
2013-02-20 19:08:00,21.2,14.2,29.46,NW,320,9.0,16.0,74,0.00,,,0.00,WUHU216DAVISVP2,2013-02-21 00:08:00,
2013-02-20 19:10:00,21.2,14.2,29.46,NNW,348,13.0,15.0,74,0.00,,,0.00,WUHU216DAVISVP2,2013-02-21 00:10:00,
2013-02-20 19:12:00,21.2,14.2,29.46,NNW,342,7.0,15.0,74,0.00,,,0.00,WUHU216DAVISVP2,2013-02-21 00:12:00,
2013-02-20 19:13:00,21.2,14.2,29.47,NNW,335,10.0,15.0,74,0.00,,,0.00,WUHU216DAVISVP2,2013-02-21 00:13:00,
2013-02-20 19:15:00,21.2,14.5,29.47,NNW,339,8.0,15.0,75,0.00,,,0.00,WUHU216DAVISVP2,2013-02-21 00:15:00,
2013-02-20 19:17:00,21.2,14.5,29.47,NNW,328,6.0,15.0,75,0.00,,,0.00,WUHU216DAVISVP2,2013-02-21 00:17:00,
2013-02-20 19:18:00,21.2,14.5,29.47,North,354,6.0,13.0,75,0.00,,,0.00,WUHU216DAVISVP2,2013-02-21 00:18:00,
2013-02-20 19:20:00,21.2,14.5,29.47,NW,318,11.0,13.0,75,0.00,,,0.00,WUHU216DAVISVP2,2013-02-21 00:20:00,
2013-02-20 19:22:00,21.2,14.5,29.47,NW,319,7.0,13.0,75,0.00,,,0.00,WUHU216DAVISVP2,2013-02-21 00:22:00,
2013-02-20 19:24:00,21.2,14.5,29.47,NW,322,6.0,13.0,75,0.00,,,0.00,WUHU216DAVISVP2,2013-02-21 00:24:00,
2013-02-20 19:25:00,21.3,14.6,29.47,NW,326,8.0,13.0,75,0.00,,,0.00,WUHU216DAVISVP2,2013-02-21 00:25:00,
2013-02-20 19:27:00,21.2,14.5,29.47,NNW,331,8.0,13.0,75,0.00,,,0.00,WUHU216DAVISVP2,2013-02-21 00:27:00,
2013-02-20 19:28:00,21.3,14.6,29.47,North,349,10.0,13.0,75,0.00,,,0.00,WUHU216DAVISVP2,2013-02-21 00:28:00,
2013-02-20 19:29:00,21.2,14.5,29.47,NNW,345,8.0,12.0,75,0.00,,,0.00,WUHU216DAVISVP2,2013-02-21 00:29:00,
2013-02-20 19:30:00,21.2,14.5,29.47,NNW,336,5.0,12.0,75,0.00,,,0.00,WUHU216DAVISVP2,2013-02-21 00:30:00,
2013-02-20 19:32:00,21.2,14.5,29.47,NW,322,6.0,12.0,75,0.00,,,0.00,WUHU216DAVISVP2,2013-02-21 00:32:00,
2013-02-20 19:33:00,21.3,14.6,29.47,NW,323,10.0,12.0,75,0.00,,,0.00,WUHU216DAVISVP2,2013-02-21 00:33:00,
2013-02-20 19:34:00,21.3,14.6,29.47,NNW,331,8.0,12.0,75,0.00,,,0.00,WUHU216DAVISVP2,2013-02-21 00:34:00,
2013-02-20 19:35:00,21.3,14.6,29.46,NNW,330,8.0,12.0,75,0.00,,,0.00,WUHU216DAVISVP2,2013-02-21 00:35:00,
2013-02-20 19:37:00,21.3,14.9,29.46,NNW,337,6.0,12.0,76,0.00,,,0.00,WUHU216DAVISVP2,2013-02-21 00:37:00,
2013-02-20 19:38:00,21.3,14.9,29.46,NNW,345,7.0,12.0,76,0.00,,,0.00,WUHU216DAVISVP2,2013-02-21 00:38:00,
2013-02-20 19:39:00,21.3,14.9,29.46,NNW,341,7.0,12.0,76,0.00,,,0.00,WUHU216DAVISVP2,2013-02-21 00:39:00,
2013-02-20 19:40:00,21.3,14.9,29.47,NNW,338,12.0,12.0,76,0.00,,,0.00,WUHU216DAVISVP2,2013-02-21 00:40:00,
2013-02-20 19:42:00,21.3,14.9,29.47,NNW,343,9.0,13.0,76,0.00,,,0.00,WUHU216DAVISVP2,2013-02-21 00:42:00,
2013-02-20 19:43:00,21.3,14.9,29.47,NW,317,9.0,13.0,76,0.00,,,0.00,WUHU216DAVISVP2,2013-02-21 00:43:00,
2013-02-20 19:44:00,21.3,14.9,29.47,NW,318,10.0,13.0,76,0.00,,,0.00,WUHU216DAVISVP2,2013-02-21 00:44:00,
2013-02-20 19:45:00,21.3,14.6,29.46,NW,324,8.0,13.0,75,0.00,,,0.00,WUHU216DAVISVP2,2013-02-21 00:45:00,
2013-02-20 19:47:00,21.3,14.6,29.46,NNW,328,5.0,13.0,75,0.00,,,0.00,WUHU216DAVISVP2,2013-02-21 00:47:00,
2013-02-20 19:49:00,21.3,14.9,29.46,NW,322,6.0,13.0,76,0.00,,,0.00,WUHU216DAVISVP2,2013-02-21 00:49:00,
2013-02-20 19:51:00,21.3,14.9,29.46,NNW,335,6.0,13.0,76,0.00,,,0.00,WUHU216DAVISVP2,2013-02-21 00:51:00,
2013-02-20 19:52:00,21.3,14.9,29.46,North,349,10.0,13.0,76,0.00,,,0.00,WUHU216DAVISVP2,2013-02-21 00:52:00,
2013-02-20 19:54:00,21.3,14.9,29.46,NNW,335,9.0,13.0,76,0.00,,,0.00,WUHU216DAVISVP2,2013-02-21 00:54:00,
2013-02-20 19:56:00,21.3,14.6,29.46,NW,321,5.0,13.0,75,0.00,,,0.00,WUHU216DAVISVP2,2013-02-21 00:56:00,
2013-02-20 19:57:00,21.3,14.6,29.46,NW,322,9.0,13.0,75,0.00,,,0.00,WUHU216DAVISVP2,2013-02-21 00:57:00,
2013-02-20 19:59:00,21.3,14.6,29.46,NNW,332,9.0,13.0,75,0.00,,,0.00,WUHU216DAVISVP2,2013-02-21 00:59:00,
2013-02-20 20:01:00,21.4,14.7,29.46,NW,320,7.0,13.0,75,0.00,,,0.00,WUHU216DAVISVP2,2013-02-21 01:01:00,
2013-02-20 20:02:00,21.4,14.7,29.47,NW,320,8.0,13.0,75,0.00,,,0.00,WUHU216DAVISVP2,2013-02-21 01:02:00,
2013-02-20 20:04:00,21.4,14.7,29.46,NNW,339,9.0,13.0,75,0.00,,,0.00,WUHU216DAVISVP2,2013-02-21 01:04:00,
2013-02-20 20:06:00,21.5,14.8,29.47,North,11,9.0,13.0,75,0.00,,,0.00,WUHU216DAVISVP2,2013-02-21 01:06:00,
2013-02-20 20:08:00,21.5,14.8,29.47,NW,326,10.0,13.0,75,0.00,,,0.00,WUHU216DAVISVP2,2013-02-21 01:08:00,
2013-02-20 20:09:00,21.5,14.8,29.46,NNW,329,9.0,13.0,75,0.00,,,0.00,WUHU216DAVISVP2,2013-02-21 01:09:00,
2013-02-20 20:11:00,21.5,14.8,29.46,NNW,333,8.0,13.0,75,0.00,,,0.00,WUHU216DAVISVP2,2013-02-21 01:11:00,
2013-02-20 20:13:00,21.6,15.2,29.46,NNW,342,10.0,13.0,76,0.00,,,0.00,WUHU216DAVISVP2,2013-02-21 01:13:00,
2013-02-20 20:14:00,21.6,15.2,29.46,NNW,327,8.0,13.0,76,0.00,,,0.00,WUHU216DAVISVP2,2013-02-21 01:14:00,
2013-02-20 20:16:00,21.6,15.2,29.46,NNW,337,8.0,13.0,76,0.00,,,0.00,WUHU216DAVISVP2,2013-02-21 01:16:00,
2013-02-20 20:18:00,21.6,15.2,29.46,NNW,329,7.0,13.0,76,0.00,,,0.00,WUHU216DAVISVP2,2013-02-21 01:18:00,
2013-02-20 20:19:00,21.7,15.3,29.46,NW,325,6.0,13.0,76,0.00,,,0.00,WUHU216DAVISVP2,2013-02-21 01:19:00,
2013-02-20 20:21:00,21.7,15.3,29.46,NNW,328,9.0,13.0,76,0.00,,,0.00,WUHU216DAVISVP2,2013-02-21 01:21:00,
2013-02-20 20:23:00,21.7,15.0,29.46,NNW,347,10.0,13.0,75,0.00,,,0.00,WUHU216DAVISVP2,2013-02-21 01:23:00,
2013-02-20 20:24:00,21.7,15.0,29.46,NNW,332,7.0,12.0,75,0.00,,,0.00,WUHU216DAVISVP2,2013-02-21 01:24:00,
2013-02-20 20:26:00,21.8,15.1,29.46,NNW,331,6.0,12.0,75,0.00,,,0.00,WUHU216DAVISVP2,2013-02-21 01:26:00,
2013-02-20 20:28:00,21.8,15.1,29.46,NNW,332,9.0,12.0,75,0.00,,,0.00,WUHU216DAVISVP2,2013-02-21 01:28:00,
2013-02-20 20:29:00,21.8,15.1,29.46,NW,305,12.0,12.0,75,0.00,,,0.00,WUHU216DAVISVP2,2013-02-21 01:29:00,
2013-02-20 20:31:00,21.8,15.1,29.46,NNW,328,7.0,12.0,75,0.00,,,0.00,WUHU216DAVISVP2,2013-02-21 01:31:00,
2013-02-20 20:34:00,21.8,15.1,29.46,NNW,344,7.0,12.0,75,0.00,,,0.00,WUHU216DAVISVP2,2013-02-21 01:34:00,
2013-02-20 20:35:00,21.8,15.1,29.46,NNW,327,7.0,12.0,75,0.00,,,0.00,WUHU216DAVISVP2,2013-02-21 01:35:00,
2013-02-20 20:36:00,21.8,15.1,29.46,NNW,335,12.0,12.0,75,0.00,,,0.00,WUHU216DAVISVP2,2013-02-21 01:36:00,
2013-02-20 20:39:00,21.8,14.8,29.46,NNW,339,9.0,12.0,74,0.00,,,0.00,WUHU216DAVISVP2,2013-02-21 01:39:00,
2013-02-20 20:40:00,21.8,14.8,29.46,NW,315,7.0,12.0,74,0.00,,,0.00,WUHU216DAVISVP2,2013-02-21 01:40:00,
2013-02-20 20:41:00,21.8,14.8,29.46,NNW,334,7.0,12.0,74,0.00,,,0.00,WUHU216DAVISVP2,2013-02-21 01:41:00,
2013-02-20 20:44:00,21.9,15.2,29.46,NNW,345,7.0,12.0,75,0.00,,,0.00,WUHU216DAVISVP2,2013-02-21 01:44:00,
2013-02-20 20:45:00,21.8,15.1,29.46,NNW,339,8.0,12.0,75,0.00,,,0.00,WUHU216DAVISVP2,2013-02-21 01:45:00,
2013-02-20 20:46:00,21.8,15.1,29.46,NW,320,8.0,12.0,75,0.00,,,0.00,WUHU216DAVISVP2,2013-02-21 01:46:00,
2013-02-20 20:49:00,21.9,15.2,29.46,NNW,338,8.0,12.0,75,0.00,,,0.00,WUHU216DAVISVP2,2013-02-21 01:49:00,
2013-02-20 20:50:00,21.8,15.1,29.46,NNW,345,9.0,12.0,75,0.00,,,0.00,WUHU216DAVISVP2,2013-02-21 01:50:00,
2013-02-20 20:51:00,21.9,15.2,29.46,North,349,12.0,13.0,75,0.00,,,0.00,WUHU216DAVISVP2,2013-02-21 01:51:00,
2013-02-20 20:54:00,21.8,15.1,29.46,NNW,334,7.0,13.0,75,0.00,,,0.00,WUHU216DAVISVP2,2013-02-21 01:54:00,
2013-02-20 20:55:00,21.8,15.1,29.46,NNW,347,9.0,13.0,75,0.00,,,0.00,WUHU216DAVISVP2,2013-02-21 01:55:00,
2013-02-20 20:56:00,21.8,15.1,29.46,NNW,332,9.0,13.0,75,0.00,,,0.00,WUHU216DAVISVP2,2013-02-21 01:56:00,
2013-02-20 20:59:00,21.9,15.2,29.46,NNW,333,6.0,13.0,75,0.00,,,0.00,WUHU216DAVISVP2,2013-02-21 01:59:00,
2013-02-20 21:00:00,21.8,15.1,29.46,NW,323,7.0,13.0,75,0.00,,,0.00,WUHU216DAVISVP2,2013-02-21 02:00:00,
2013-02-20 21:01:00,21.8,15.1,29.46,NNW,347,6.0,13.0,75,0.00,,,0.00,WUHU216DAVISVP2,2013-02-21 02:01:00,
2013-02-20 21:02:00,21.9,15.5,29.46,NW,322,9.0,13.0,76,0.00,,,0.00,WUHU216DAVISVP2,2013-02-21 02:02:00,
2013-02-20 21:04:00,21.9,15.5,29.47,NNW,345,12.0,13.0,76,0.00,,,0.00,WUHU216DAVISVP2,2013-02-21 02:04:00,
2013-02-20 21:05:00,21.9,15.5,29.47,NNW,335,8.0,13.0,76,0.00,,,0.00,WUHU216DAVISVP2,2013-02-21 02:05:00,
2013-02-20 21:06:00,21.8,15.4,29.47,North,359,6.0,13.0,76,0.00,,,0.00,WUHU216DAVISVP2,2013-02-21 02:06:00,
2013-02-20 21:07:00,21.9,15.5,29.47,NW,317,5.0,13.0,76,0.00,,,0.00,WUHU216DAVISVP2,2013-02-21 02:07:00,
2013-02-20 21:09:00,21.8,15.4,29.47,North,354,9.0,13.0,76,0.00,,,0.00,WUHU216DAVISVP2,2013-02-21 02:09:00,
2013-02-20 21:10:00,21.9,15.5,29.47,NNW,339,8.0,13.0,76,0.00,,,0.00,WUHU216DAVISVP2,2013-02-21 02:10:00,
2013-02-20 21:11:00,21.8,15.4,29.47,NNW,337,8.0,13.0,76,0.00,,,0.00,WUHU216DAVISVP2,2013-02-21 02:11:00,
2013-02-20 21:12:00,21.9,15.5,29.47,NNW,348,6.0,13.0,76,0.00,,,0.00,WUHU216DAVISVP2,2013-02-21 02:12:00,
2013-02-20 21:14:00,21.9,15.5,29.46,NNW,345,7.0,13.0,76,0.00,,,0.00,WUHU216DAVISVP2,2013-02-21 02:14:00,
2013-02-20 21:16:00,21.8,15.4,29.47,NNW,335,6.0,13.0,76,0.00,,,0.00,WUHU216DAVISVP2,2013-02-21 02:16:00,
2013-02-20 21:17:00,21.9,15.5,29.46,NNW,347,7.0,13.0,76,0.00,,,0.00,WUHU216DAVISVP2,2013-02-21 02:17:00,
2013-02-20 21:20:00,21.9,15.5,29.47,NNW,341,5.0,13.0,76,0.00,,,0.00,WUHU216DAVISVP2,2013-02-21 02:20:00,
2013-02-20 21:21:00,21.9,15.5,29.46,NNW,337,6.0,13.0,76,0.00,,,0.00,WUHU216DAVISVP2,2013-02-21 02:21:00,
2013-02-20 21:22:00,21.9,15.8,29.46,NNW,341,5.0,13.0,77,0.00,,,0.00,WUHU216DAVISVP2,2013-02-21 02:22:00,
2013-02-20 21:25:00,21.8,15.7,29.46,North,354,8.0,12.0,77,0.00,,,0.00,WUHU216DAVISVP2,2013-02-21 02:25:00,
2013-02-20 21:26:00,21.8,15.7,29.46,North,354,7.0,12.0,77,0.00,,,0.00,WUHU216DAVISVP2,2013-02-21 02:26:00,
2013-02-20 21:27:00,21.8,15.7,29.46,NNW,339,9.0,12.0,77,0.00,,,0.00,WUHU216DAVISVP2,2013-02-21 02:27:00,
2013-02-20 21:30:00,21.8,15.7,29.46,NNW,339,8.0,12.0,77,0.00,,,0.00,WUHU216DAVISVP2,2013-02-21 02:30:00,
2013-02-20 21:31:00,21.8,15.7,29.46,NNW,338,10.0,12.0,77,0.00,,,0.00,WUHU216DAVISVP2,2013-02-21 02:31:00,
2013-02-20 21:32:00,21.8,15.7,29.46,NNW,332,7.0,12.0,77,0.00,,,0.00,WUHU216DAVISVP2,2013-02-21 02:32:00,
2013-02-20 21:35:00,21.8,15.7,29.46,NNW,334,5.0,12.0,77,0.00,,,0.00,WUHU216DAVISVP2,2013-02-21 02:35:00,
2013-02-20 21:36:00,21.9,15.8,29.46,NNW,337,7.0,12.0,77,0.00,,,0.00,WUHU216DAVISVP2,2013-02-21 02:36:00,
2013-02-20 21:37:00,21.9,15.8,29.46,NNW,344,10.0,12.0,77,0.00,,,0.00,WUHU216DAVISVP2,2013-02-21 02:37:00,
2013-02-20 21:40:00,21.8,16.0,29.46,NNW,339,4.0,12.0,78,0.00,,,0.00,WUHU216DAVISVP2,2013-02-21 02:40:00,
2013-02-20 21:41:00,21.9,16.1,29.46,North,4,7.0,12.0,78,0.00,,,0.00,WUHU216DAVISVP2,2013-02-21 02:41:00,
2013-02-20 21:42:00,21.8,16.0,29.46,NNW,341,7.0,12.0,78,0.00,,,0.00,WUHU216DAVISVP2,2013-02-21 02:42:00,
2013-02-20 21:45:00,21.8,16.0,29.46,North,354,6.0,11.0,78,0.00,,,0.00,WUHU216DAVISVP2,2013-02-21 02:45:00,
2013-02-20 21:46:00,21.8,16.0,29.46,NNW,335,6.0,11.0,78,0.00,,,0.00,WUHU216DAVISVP2,2013-02-21 02:46:00,
2013-02-20 21:48:00,21.8,16.0,29.46,NNW,335,9.0,11.0,78,0.00,,,0.00,WUHU216DAVISVP2,2013-02-21 02:48:00,
2013-02-20 21:50:00,21.8,16.0,29.46,NNW,332,8.0,11.0,78,0.00,,,0.00,WUHU216DAVISVP2,2013-02-21 02:50:00,
2013-02-20 21:51:00,21.8,16.0,29.46,NNW,328,8.0,11.0,78,0.00,,,0.00,WUHU216DAVISVP2,2013-02-21 02:51:00,
2013-02-20 21:53:00,21.8,16.0,29.46,NNW,342,9.0,12.0,78,0.00,,,0.00,WUHU216DAVISVP2,2013-02-21 02:53:00,
2013-02-20 21:56:00,21.8,16.0,29.46,NW,326,8.0,12.0,78,0.00,,,0.00,WUHU216DAVISVP2,2013-02-21 02:56:00,
2013-02-20 21:58:00,21.8,16.0,29.46,NW,322,7.0,12.0,78,0.00,,,0.00,WUHU216DAVISVP2,2013-02-21 02:58:00,
2013-02-20 22:01:00,21.8,16.0,29.46,North,349,10.0,12.0,78,0.00,,,0.00,WUHU216DAVISVP2,2013-02-21 03:01:00,
2013-02-20 22:03:00,21.8,16.3,29.46,North,350,6.0,12.0,79,0.00,,,0.00,WUHU216DAVISVP2,2013-02-21 03:03:00,
2013-02-20 22:06:00,21.8,16.3,29.46,NNW,343,4.0,12.0,79,0.00,,,0.00,WUHU216DAVISVP2,2013-02-21 03:06:00,
2013-02-20 22:07:00,21.8,16.3,29.46,North,354,4.0,12.0,79,0.00,,,0.00,WUHU216DAVISVP2,2013-02-21 03:07:00,
2013-02-20 22:08:00,21.8,16.3,29.46,North,354,8.0,12.0,79,0.00,,,0.00,WUHU216DAVISVP2,2013-02-21 03:08:00,
2013-02-20 22:11:00,21.9,16.4,29.46,NNW,346,7.0,11.0,79,0.00,,,0.00,WUHU216DAVISVP2,2013-02-21 03:11:00,
2013-02-20 22:12:00,21.8,16.3,29.46,North,359,6.0,11.0,79,0.00,,,0.00,WUHU216DAVISVP2,2013-02-21 03:12:00,
2013-02-20 22:13:00,21.9,16.4,29.46,North,359,8.0,11.0,79,0.00,,,0.00,WUHU216DAVISVP2,2013-02-21 03:13:00,
2013-02-20 22:16:00,21.9,16.4,29.46,NNW,338,7.0,11.0,79,0.00,,,0.00,WUHU216DAVISVP2,2013-02-21 03:16:00,
2013-02-20 22:17:00,21.8,16.3,29.46,NNW,327,5.0,11.0,79,0.00,,,0.00,WUHU216DAVISVP2,2013-02-21 03:17:00,
2013-02-20 22:18:00,21.9,16.4,29.46,North,349,9.0,11.0,79,0.00,,,0.00,WUHU216DAVISVP2,2013-02-21 03:18:00,
2013-02-20 22:21:00,21.9,16.4,29.46,NNW,341,5.0,10.0,79,0.00,,,0.00,WUHU216DAVISVP2,2013-02-21 03:21:00,
2013-02-20 22:22:00,21.8,16.3,29.46,NNW,341,6.0,10.0,79,0.00,,,0.00,WUHU216DAVISVP2,2013-02-21 03:22:00,
2013-02-20 22:23:00,21.9,16.7,29.46,North,8,5.0,10.0,80,0.00,,,0.00,WUHU216DAVISVP2,2013-02-21 03:23:00,
2013-02-20 22:24:00,21.9,16.7,29.46,North,8,5.0,10.0,80,0.00,,,0.00,WUHU216DAVISVP2,2013-02-21 03:24:00,
2013-02-20 22:27:00,21.9,16.7,29.45,NNE,12,6.0,10.0,80,0.00,,,0.00,WUHU216DAVISVP2,2013-02-21 03:27:00,
2013-02-20 22:28:00,21.9,16.7,29.45,North,354,7.0,10.0,80,0.00,,,0.00,WUHU216DAVISVP2,2013-02-21 03:28:00,
2013-02-20 22:29:00,21.9,16.7,29.45,North,359,7.0,9.0,80,0.00,,,0.00,WUHU216DAVISVP2,2013-02-21 03:29:00,
2013-02-20 22:32:00,21.9,16.7,29.45,North,4,8.0,9.0,80,0.00,,,0.00,WUHU216DAVISVP2,2013-02-21 03:32:00,
2013-02-20 22:33:00,21.9,16.7,29.45,NNW,343,6.0,9.0,80,0.00,,,0.00,WUHU216DAVISVP2,2013-02-21 03:33:00,
2013-02-20 22:34:00,21.9,16.7,29.45,NNW,341,6.0,9.0,80,0.00,,,0.00,WUHU216DAVISVP2,2013-02-21 03:34:00,
2013-02-20 22:37:00,21.9,16.7,29.45,North,359,6.0,9.0,80,0.00,,,0.00,WUHU216DAVISVP2,2013-02-21 03:37:00,
2013-02-20 22:39:00,21.9,16.7,29.46,North,4,10.0,10.0,80,0.00,,,0.00,WUHU216DAVISVP2,2013-02-21 03:39:00,
2013-02-20 22:42:00,22.0,16.8,29.45,NNE,28,11.0,12.0,80,0.00,,,0.00,WUHU216DAVISVP2,2013-02-21 03:42:00,
2013-02-20 22:43:00,22.0,16.8,29.45,NNE,27,8.0,12.0,80,0.00,,,0.00,WUHU216DAVISVP2,2013-02-21 03:43:00,
2013-02-20 22:44:00,22.0,16.8,29.45,North,8,7.0,12.0,80,0.00,,,0.00,WUHU216DAVISVP2,2013-02-21 03:44:00,
2013-02-20 22:47:00,22.1,16.9,29.45,North,354,8.0,12.0,80,0.00,,,0.00,WUHU216DAVISVP2,2013-02-21 03:47:00,
2013-02-20 22:48:00,22.1,16.9,29.45,NNE,20,7.0,12.0,80,0.00,,,0.00,WUHU216DAVISVP2,2013-02-21 03:48:00,
2013-02-20 22:49:00,22.1,16.9,29.45,North,354,6.0,12.0,80,0.00,,,0.00,WUHU216DAVISVP2,2013-02-21 03:49:00,
2013-02-20 22:53:00,22.1,16.9,29.45,NE,37,9.0,13.0,80,0.00,,,0.00,WUHU216DAVISVP2,2013-02-21 03:53:00,
2013-02-20 22:54:00,22.1,16.9,29.45,North,4,8.0,13.0,80,0.00,,,0.00,WUHU216DAVISVP2,2013-02-21 03:54:00,
2013-02-20 22:55:00,22.2,17.0,29.45,North,354,10.0,13.0,80,0.00,,,0.00,WUHU216DAVISVP2,2013-02-21 03:55:00,
2013-02-20 22:58:00,22.2,17.0,29.45,NNE,14,10.0,13.0,80,0.00,,,0.00,WUHU216DAVISVP2,2013-02-21 03:58:00,
2013-02-20 22:59:00,22.2,17.0,29.45,NNE,17,13.0,13.0,80,0.00,,,0.00,WUHU216DAVISVP2,2013-02-21 03:59:00,
2013-02-20 23:00:00,22.2,17.0,29.45,North,354,9.0,13.0,80,0.00,,,0.00,WUHU216DAVISVP2,2013-02-21 04:00:00,
2013-02-20 23:03:00,22.2,17.3,29.45,North,4,10.0,13.0,81,0.00,,,0.00,WUHU216DAVISVP2,2013-02-21 04:03:00,
2013-02-20 23:04:00,22.2,17.3,29.45,North,4,7.0,13.0,81,0.00,,,0.00,WUHU216DAVISVP2,2013-02-21 04:04:00,
2013-02-20 23:05:00,22.2,17.3,29.45,NNE,32,10.0,13.0,81,0.00,,,0.00,WUHU216DAVISVP2,2013-02-21 04:05:00,
2013-02-20 23:08:00,22.3,17.3,29.45,NNE,26,6.0,13.0,81,0.00,,,0.00,WUHU216DAVISVP2,2013-02-21 04:08:00,
2013-02-20 23:09:00,22.4,17.4,29.45,NE,35,7.0,13.0,81,0.00,,,0.00,WUHU216DAVISVP2,2013-02-21 04:09:00,
2013-02-20 23:10:00,22.4,17.5,29.45,North,4,9.0,13.0,81,0.00,,,0.00,WUHU216DAVISVP2,2013-02-21 04:10:00,
2013-02-20 23:13:00,22.4,17.5,29.45,NNE,21,8.0,13.0,81,0.00,,,0.00,WUHU216DAVISVP2,2013-02-21 04:13:00,
2013-02-20 23:14:00,22.4,17.5,29.45,NNE,24,7.0,13.0,81,0.00,,,0.00,WUHU216DAVISVP2,2013-02-21 04:14:00,
2013-02-20 23:15:00,22.4,17.5,29.45,NE,37,7.0,13.0,81,0.00,,,0.00,WUHU216DAVISVP2,2013-02-21 04:15:00,
2013-02-20 23:18:00,22.4,17.5,29.45,NE,35,9.0,12.0,81,0.00,,,0.00,WUHU216DAVISVP2,2013-02-21 04:18:00,
2013-02-20 23:19:00,22.4,17.5,29.44,NE,36,10.0,12.0,81,0.00,,,0.00,WUHU216DAVISVP2,2013-02-21 04:19:00,
2013-02-20 23:20:00,22.4,17.5,29.44,NNE,16,8.0,12.0,81,0.00,,,0.00,WUHU216DAVISVP2,2013-02-21 04:20:00,
2013-02-20 23:23:00,22.5,17.5,29.44,NE,41,7.0,12.0,81,0.00,,,0.00,WUHU216DAVISVP2,2013-02-21 04:23:00,
2013-02-20 23:25:00,22.5,17.5,29.45,NNE,24,7.0,12.0,81,0.00,,,0.00,WUHU216DAVISVP2,2013-02-21 04:25:00,
2013-02-20 23:29:00,22.5,17.5,29.45,NNE,33,6.0,12.0,81,0.00,,,0.00,WUHU216DAVISVP2,2013-02-21 04:29:00,
2013-02-20 23:30:00,22.6,17.6,29.45,North,8,6.0,12.0,81,0.00,,,0.00,WUHU216DAVISVP2,2013-02-21 04:30:00,
2013-02-20 23:31:00,22.6,17.6,29.45,NNE,15,10.0,12.0,81,0.00,,,0.00,WUHU216DAVISVP2,2013-02-21 04:31:00,
2013-02-20 23:34:00,22.6,17.6,29.45,NE,44,7.0,12.0,81,0.00,,,0.00,WUHU216DAVISVP2,2013-02-21 04:34:00,
2013-02-20 23:35:00,22.6,17.6,29.45,NNE,26,7.0,12.0,81,0.00,,,0.00,WUHU216DAVISVP2,2013-02-21 04:35:00,
2013-02-20 23:36:00,22.7,17.7,29.45,NE,49,8.0,12.0,81,0.00,,,0.00,WUHU216DAVISVP2,2013-02-21 04:36:00,
2013-02-20 23:39:00,22.7,17.7,29.45,ENE,58,9.0,14.0,81,0.00,,,0.00,WUHU216DAVISVP2,2013-02-21 04:39:00,
2013-02-20 23:40:00,22.7,17.7,29.45,NE,39,10.0,14.0,81,0.00,,,0.00,WUHU216DAVISVP2,2013-02-21 04:40:00,
2013-02-20 23:41:00,22.7,17.7,29.45,NNE,30,7.0,14.0,81,0.00,,,0.00,WUHU216DAVISVP2,2013-02-21 04:41:00,
2013-02-20 23:44:00,22.7,17.7,29.45,NNE,29,12.0,14.0,81,0.00,,,0.00,WUHU216DAVISVP2,2013-02-21 04:44:00,
2013-02-20 23:45:00,22.7,17.7,29.45,NNE,32,9.0,14.0,81,0.00,,,0.00,WUHU216DAVISVP2,2013-02-21 04:45:00,
2013-02-20 23:46:00,22.7,17.7,29.45,NNE,33,9.0,14.0,81,0.00,,,0.00,WUHU216DAVISVP2,2013-02-21 04:46:00,
2013-02-20 23:49:00,22.7,17.7,29.45,NNE,28,10.0,14.0,81,0.00,,,0.00,WUHU216DAVISVP2,2013-02-21 04:49:00,
2013-02-20 23:50:00,22.7,17.5,29.45,NNE,27,10.0,14.0,80,0.00,,,0.00,WUHU216DAVISVP2,2013-02-21 04:50:00,
2013-02-20 23:51:00,22.7,17.5,29.45,NNE,22,9.0,14.0,80,0.00,,,0.00,WUHU216DAVISVP2,2013-02-21 04:51:00,
2013-02-20 23:54:00,22.7,17.7,29.45,NNE,21,10.0,14.0,81,0.00,,,0.00,WUHU216DAVISVP2,2013-02-21 04:54:00,
2013-02-20 23:55:00,22.7,17.7,29.45,NNE,18,9.0,14.0,81,0.00,,,0.00,WUHU216DAVISVP2,2013-02-21 04:55:00,
2013-02-20 23:56:00,22.7,17.7,29.45,NE,49,7.0,14.0,81,0.00,,,0.00,WUHU216DAVISVP2,2013-02-21 04:56:00,
2013-02-20 23:59:00,22.7,17.5,29.45,NNE,23,8.0,14.0,80,0.00,,,0.00,WUHU216DAVISVP2,2013-02-21 04:59:00,